| time (UTC) | temp F | wind direction | speed MPH | gust MPH | rain 1hr in | rain 24hr in | rain mn in | humidity % | barometer mb |
| 20260906025411 | 79 | 215 | 1.0 | 2.0 | 0.00 | 0.00 | 0.00 | 71 | 1017.1 |
| 20260906025308 | 79 | 215 | 1.0 | 3.0 | 0.00 | 0.00 | 0.00 | 72 | 1017.1 |
| 20260906025211 | 79 | 215 | 1.0 | 3.0 | 0.00 | 0.00 | 0.00 | 72 | 1017.1 |
| 20260906025111 | 79 | 215 | 1.0 | 3.0 | 0.00 | 0.00 | 0.00 | 72 | 1017.0 |
| 20260906025010 | 79 | 215 | 1.0 | 3.0 | 0.00 | 0.00 | 0.00 | 72 | 1017.0 |
| 20260906024910 | 79 | 215 | 1.0 | 3.0 | 0.00 | 0.00 | 0.00 | 72 | 1017.1 |
| 20260906024809 | 79 | 215 | 1.0 | 3.0 | 0.00 | 0.00 | 0.00 | 71 | 1017.1 |
| 20260906024702 | 79 | 215 | 1.0 | 3.0 | 0.00 | 0.00 | 0.00 | 71 | 1017.0 |
| 20260906024602 | 79 | 215 | 1.0 | 3.0 | 0.00 | 0.00 | 0.00 | 71 | 1017.1 |
| 20260906024502 | 79 | 215 | 2.0 | 4.0 | 0.00 | 0.00 | 0.00 | 72 | 1017.1 |
| 20260906024403 | 79 | 215 | 2.0 | 4.0 | 0.00 | 0.00 | 0.00 | 72 | 1017.1 |
| 20260906024341 | 79 | 215 | 2.0 | 5.0 | 0.00 | 0.00 | 0.00 | 71 | 1017.1 |
| 20260906024330 | 79 | 215 | 2.0 | 4.0 | 0.00 | 0.00 | 0.00 | 71 | 1017.1 |
| 20260906024100 | 79 | 215 | 2.0 | 5.0 | 0.00 | 0.00 | 0.00 | 71 | 1017.1 |
| 20260906024033 | 79 | 215 | 2.0 | 5.0 | 0.00 | 0.00 | 0.00 | 71 | 1017.1 |
| 20260906024021 | 79 | 215 | 2.0 | 5.0 | 0.00 | 0.00 | 0.00 | 71 | 1017.1 |
| 20260906023758 | 79 | 215 | 2.0 | 5.0 | 0.00 | 0.00 | 0.00 | 71 | 1017.1 |
| 20260906023659 | 80 | 219 | 2.0 | 5.0 | 0.00 | 0.00 | 0.00 | 71 | 1017.1 |
| 20260906023559 | 80 | 219 | 2.0 | 5.0 | 0.00 | 0.00 | 0.00 | 71 | 1017.1 |
| 20260906023530 | 80 | 219 | 2.0 | 5.0 | 0.00 | 0.00 | 0.00 | 71 | 1017.0 |
| 20260906023519 | 80 | 219 | 2.0 | 5.0 | 0.00 | 0.00 | 0.00 | 71 | 1017.0 |
| 20260906023259 | 80 | 222 | 2.0 | 5.0 | 0.00 | 0.00 | 0.00 | 71 | 1017.1 |
| 20260906023158 | 80 | 244 | 2.0 | 5.0 | 0.00 | 0.00 | 0.00 | 71 | 1017.1 |
| 20260906023100 | 80 | 215 | 2.0 | 3.0 | 0.00 | 0.00 | 0.00 | 71 | 1017.1 |
| 20260906023000 | 80 | 215 | 2.0 | 3.0 | 0.00 | 0.00 | 0.00 | 71 | 1017.2 |
| 20260906022858 | 80 | 215 | 2.0 | 3.0 | 0.00 | 0.00 | 0.00 | 71 | 1017.1 |
| 20260906022759 | 80 | 215 | 2.0 | 3.0 | 0.00 | 0.00 | 0.00 | 70 | 1017.1 |
| 20260906022659 | 80 | 215 | 2.0 | 3.0 | 0.00 | 0.00 | 0.00 | 70 | 1017.1 |
| 20260906022630 | 80 | 215 | 2.0 | 5.0 | 0.00 | 0.00 | 0.00 | 70 | 1016.8 |
| 20260906022620 | 80 | 215 | 2.0 | 3.0 | 0.00 | 0.00 | 0.00 | 70 | 1017.0 |
| 20260906022559 | 80 | 215 | 2.0 | 3.0 | 0.00 | 0.00 | 0.00 | 70 | 1016.9 |
| 20260906022427 | 80 | 215 | 2.0 | 5.0 | 0.00 | 0.00 | 0.00 | 70 | 1016.9 |
| 20260906022200 | 80 | 215 | 2.0 | 5.0 | 0.00 | 0.00 | 0.00 | 70 | 1016.8 |
| 20260906022058 | 80 | 215 | 2.0 | 5.0 | 0.00 | 0.00 | 0.00 | 70 | 1016.8 |
| 20260906021958 | 80 | 215 | 2.0 | 5.0 | 0.00 | 0.00 | 0.00 | 70 | 1016.9 |
| 20260906021858 | 80 | 215 | 2.0 | 5.0 | 0.00 | 0.00 | 0.00 | 69 | 1016.9 |
| 20260906021759 | 80 | 215 | 2.0 | 5.0 | 0.00 | 0.00 | 0.00 | 69 | 1016.8 |
| 20260906021700 | 80 | 215 | 2.0 | 5.0 | 0.00 | 0.00 | 0.00 | 69 | 1016.8 |
| 20260906021600 | 80 | 215 | 1.0 | 5.0 | 0.00 | 0.00 | 0.00 | 68 | 1016.8 |
| 20260906021459 | 80 | 215 | 1.0 | 5.0 | 0.00 | 0.00 | 0.00 | 68 | 1016.7 |
| 20260906021359 | 80 | 214 | 1.0 | 4.0 | 0.00 | 0.00 | 0.00 | 69 | 1016.5 |
| 20260906021259 | 80 | 208 | 1.0 | 4.0 | 0.00 | 0.00 | 0.00 | 69 | 1016.5 |
| 20260906021158 | 80 | 237 | 1.0 | 3.0 | 0.00 | 0.00 | 0.00 | 69 | 1016.5 |
| 20260906021101 | 80 | 234 | 1.0 | 2.0 | 0.00 | 0.00 | 0.00 | 69 | 1016.5 |
| 20260906020959 | 80 | 234 | 1.0 | 2.0 | 0.00 | 0.00 | 0.00 | 69 | 1016.4 |
| 20260906020859 | 80 | 234 | 1.0 | 2.0 | 0.00 | 0.00 | 0.00 | 69 | 1016.4 |
| 20260906020801 | 80 | 234 | 1.0 | 2.0 | 0.00 | 0.00 | 0.00 | 69 | 1016.5 |
| 20260906020657 | 79 | 234 | 1.0 | 2.0 | 0.00 | 0.00 | 0.00 | 69 | 1016.5 |
| 20260906020557 | 79 | 234 | 1.0 | 2.0 | 0.00 | 0.00 | 0.00 | 69 | 1016.5 |
| 20260906020533 | 79 | 234 | 2.0 | 3.0 | 0.00 | 0.00 | 0.00 | 69 | 1016.5 |
| 20260906020520 | 79 | 234 | 2.0 | 3.0 | 0.00 | 0.00 | 0.00 | 69 | 1016.5 |
| 20260906020255 | 79 | 234 | 2.0 | 3.0 | 0.00 | 0.00 | 0.00 | 70 | 1016.5 |
| 20260906020156 | 79 | 234 | 2.0 | 3.0 | 0.00 | 0.00 | 0.00 | 70 | 1016.5 |
| 20260906020116 | 79 | 233 | 1.0 | 3.0 | 0.00 | 0.00 | 0.00 | 70 | 1016.4 |
| 20260906020100 | 79 | 233 | 1.0 | 3.0 | 0.00 | 0.00 | 0.00 | 70 | 1016.5 |
| 20260906020042 | 79 | 233 | 1.0 | 3.0 | 0.00 | 0.00 | 0.00 | 70 | 1016.4 |
| 20260906015753 | 79 | 233 | 1.0 | 3.0 | 0.00 | 0.00 | 0.00 | 70 | 1016.3 |
| 20260906015651 | 79 | 233 | 1.0 | 3.0 | 0.00 | 0.00 | 0.00 | 70 | 1016.3 |
| 20260906015551 | 79 | 233 | 1.0 | 3.0 | 0.00 | 0.00 | 0.00 | 70 | 1016.3 |
| 20260906015451 | 79 | 233 | 1.0 | 3.0 | 0.00 | 0.00 | 0.00 | 70 | 1016.3 |
| 20260906015350 | 79 | 233 | 1.0 | 3.0 | 0.00 | 0.00 | 0.00 | 70 | 1016.2 |
| 20260906015251 | 79 | 233 | 1.0 | 2.0 | 0.00 | 0.00 | 0.00 | 70 | 1016.1 |
| 20260906015153 | 79 | 233 | 1.0 | 3.0 | 0.00 | 0.00 | 0.00 | 70 | 1016.2 |
| 20260906015124 | 79 | 233 | 1.0 | 3.0 | 0.00 | 0.00 | 0.00 | 70 | 1016.1 |
| 20260906015113 | 79 | 233 | 1.0 | 3.0 | 0.00 | 0.00 | 0.00 | 70 | 1016.1 |
| 20260906014850 | 79 | 233 | 1.0 | 3.0 | 0.00 | 0.00 | 0.00 | 70 | 1016.0 |
| 20260906014751 | 79 | 233 | 1.0 | 3.0 | 0.00 | 0.00 | 0.00 | 71 | 1016.0 |
| 20260906014650 | 79 | 233 | 1.0 | 3.0 | 0.00 | 0.00 | 0.00 | 71 | 1016.0 |
| 20260906014552 | 79 | 233 | 1.0 | 3.0 | 0.00 | 0.00 | 0.00 | 71 | 1016.0 |
| 20260906014452 | 79 | 233 | 1.0 | 3.0 | 0.00 | 0.00 | 0.00 | 71 | 1016.1 |
| 20260906014352 | 79 | 233 | 1.0 | 3.0 | 0.00 | 0.00 | 0.00 | 71 | 1016.1 |
| 20260906014251 | 79 | 233 | 1.0 | 3.0 | 0.00 | 0.00 | 0.00 | 71 | 1016.1 |
| 20260906014152 | 79 | 232 | 1.0 | 3.0 | 0.00 | 0.00 | 0.00 | 71 | 1016.1 |
| 20260906014051 | 79 | 265 | 1.0 | 4.0 | 0.00 | 0.00 | 0.00 | 71 | 1016.1 |
| 20260906013952 | 79 | 265 | 1.0 | 4.0 | 0.00 | 0.00 | 0.00 | 71 | 1016.1 |
| 20260906013935 | 79 | 265 | 2.0 | 5.0 | 0.00 | 0.00 | 0.00 | 71 | 1016.0 |
| 20260906013921 | 79 | 265 | 2.0 | 5.0 | 0.00 | 0.00 | 0.00 | 71 | 1016.1 |
| 20260906013651 | 79 | 265 | 2.0 | 5.0 | 0.00 | 0.00 | 0.00 | 71 | 1016.0 |
| 20260906013552 | 79 | 265 | 2.0 | 5.0 | 0.00 | 0.00 | 0.00 | 71 | 1016.0 |
| 20260906013528 | 78 | 265 | 2.0 | 5.0 | 0.00 | 0.00 | 0.00 | 71 | 1015.9 |
| 20260906013516 | 79 | 265 | 2.0 | 5.0 | 0.00 | 0.00 | 0.00 | 71 | 1015.9 |
| 20260906013248 | 78 | 265 | 3.0 | 5.0 | 0.00 | 0.00 | 0.00 | 71 | 1015.9 |
| 20260906013146 | 78 | 265 | 3.0 | 5.0 | 0.00 | 0.00 | 0.00 | 71 | 1015.9 |
| 20260906013045 | 78 | 303 | 2.0 | 5.0 | 0.00 | 0.00 | 0.00 | 71 | 1016.0 |
| 20260906012951 | 78 | 306 | 2.0 | 5.0 | 0.00 | 0.00 | 0.00 | 71 | 1016.1 |
| 20260906012844 | 78 | 268 | 2.0 | 4.0 | 0.00 | 0.00 | 0.00 | 71 | 1016.1 |
| 20260906012740 | 78 | 263 | 2.0 | 4.0 | 0.00 | 0.00 | 0.00 | 72 | 1016.1 |
| 20260906012640 | 78 | 306 | 3.0 | 5.0 | 0.00 | 0.00 | 0.00 | 72 | 1016.2 |
| 20260906012541 | 78 | 293 | 3.0 | 7.0 | 0.00 | 0.00 | 0.00 | 73 | 1016.1 |
| 20260906012439 | 78 | 290 | 3.0 | 7.0 | 0.00 | 0.00 | 0.00 | 73 | 1016.1 |
| 20260906012344 | 78 | 270 | 3.0 | 7.0 | 0.00 | 0.00 | 0.00 | 73 | 1016.1 |
| 20260906012313 | 78 | 212 | 3.0 | 7.0 | 0.00 | 0.00 | 0.00 | 74 | 1016.1 |
| 20260906012300 | 78 | 212 | 3.0 | 7.0 | 0.00 | 0.00 | 0.00 | 73 | 1016.1 |
| 20260906012037 | 78 | 212 | 3.0 | 7.0 | 0.00 | 0.00 | 0.00 | 73 | 1016.1 |
| 20260906011936 | 78 | 212 | 3.0 | 7.0 | 0.00 | 0.00 | 0.00 | 73 | 1016.1 |
| 20260906011834 | 78 | 210 | 3.0 | 7.0 | 0.00 | 0.00 | 0.00 | 73 | 1016.1 |
| 20260906011733 | 78 | 202 | 3.0 | 7.0 | 0.00 | 0.00 | 0.00 | 73 | 1016.2 |
| 20260906011632 | 79 | 206 | 4.0 | 8.0 | 0.00 | 0.00 | 0.00 | 73 | 1016.3 |
| 20260906011538 | 79 | 215 | 4.0 | 11.0 | 0.00 | 0.00 | 0.00 | 72 | 1016.5 |
| 20260906011432 | 79 | 212 | 4.0 | 14.0 | 0.00 | 0.00 | 0.00 | 72 | 1016.7 |
| 20260906011333 | 79 | 251 | 5.0 | 21.0 | 0.00 | 0.00 | 0.00 | 72 | 1016.8 |
| 20260906011259 | 79 | 214 | 5.0 | 21.0 | 0.00 | 0.00 | 0.00 | 72 | 1016.4 |
| 20260906011249 | 79 | 287 | 5.0 | 21.0 | 0.00 | 0.00 | 0.00 | 72 | 1016.7 |
| 20260906011101 | 80 | 181 | 5.0 | 21.0 | 0.00 | 0.00 | 0.00 | 71 | 1016.3 |
| 20260906011049 | 80 | 211 | 5.0 | 21.0 | 0.00 | 0.00 | 0.00 | 71 | 1016.4 |
| 20260906010824 | 80 | 215 | 5.0 | 21.0 | 0.00 | 0.00 | 0.00 | 70 | 1016.3 |
| 20260906010725 | 80 | 265 | 4.0 | 21.0 | 0.00 | 0.00 | 0.00 | 70 | 1016.7 |
| 20260906010618 | 81 | 221 | 3.0 | 21.0 | 0.00 | 0.00 | 0.00 | 69 | 1016.8 |
| 20260906010556 | 81 | 38 | 2.0 | 9.0 | 0.00 | 0.00 | 0.00 | 67 | 1016.7 |
| 20260906010543 | 81 | 245 | 2.0 | 21.0 | 0.00 | 0.00 | 0.00 | 68 | 1016.9 |
| 20260906010320 | 81 | 288 | 1.0 | 7.0 | 0.00 | 0.00 | 0.00 | 65 | 1016.5 |
| 20260906010224 | 81 | 307 | 1.0 | 4.0 | 0.00 | 0.00 | 0.00 | 65 | 1016.2 |
| 20260906010119 | 81 | 205 | 2.0 | 4.0 | 0.00 | 0.00 | 0.00 | 65 | 1016.0 |
| 20260906010019 | 82 | 130 | 2.0 | 6.0 | 0.00 | 0.00 | 0.00 | 65 | 1016.1 |
| 20260906005920 | 82 | 200 | 2.0 | 6.0 | 0.00 | 0.00 | 0.00 | 65 | 1016.1 |
| 20260906005819 | 82 | 200 | 2.0 | 6.0 | 0.00 | 0.00 | 0.00 | 65 | 1016.1 |
| 20260906005716 | 82 | 200 | 2.0 | 6.0 | 0.00 | 0.00 | 0.00 | 65 | 1016.1 |
| 20260906005614 | 82 | 200 | 2.0 | 6.0 | 0.00 | 0.00 | 0.00 | 65 | 1016.2 |
| 20260906005416 | 82 | 200 | 2.0 | 6.0 | 0.00 | 0.00 | 0.00 | 65 | 1016.3 |
| 20260906005314 | 82 | 186 | 2.0 | 6.0 | 0.00 | 0.00 | 0.00 | 65 | 1016.2 |
| 20260906005212 | 82 | 183 | 1.0 | 6.0 | 0.00 | 0.00 | 0.00 | 65 | 1016.2 |
| 20260906005113 | 82 | 200 | 1.0 | 6.0 | 0.00 | 0.00 | 0.00 | 64 | 1016.2 |
| 20260906005012 | 82 | 190 | 2.0 | 4.0 | 0.00 | 0.00 | 0.00 | 64 | 1016.2 |
| 20260906004911 | 82 | 190 | 2.0 | 4.0 | 0.00 | 0.00 | 0.00 | 64 | 1016.2 |
| 20260906004814 | 82 | 190 | 2.0 | 4.0 | 0.00 | 0.00 | 0.00 | 64 | 1016.3 |
| 20260906004733 | 83 | 78 | 2.0 | 4.0 | 0.00 | 0.00 | 0.00 | 64 | 1016.3 |
| 20260906004727 | 82 | 78 | 3.0 | 4.0 | 0.00 | 0.00 | 0.00 | 64 | 1016.3 |
| 20260906004713 | 83 | 188 | 2.0 | 4.0 | 0.00 | 0.00 | 0.00 | 64 | 1016.3 |
| 20260906004651 | 82 | 78 | 2.0 | 4.0 | 0.00 | 0.00 | 0.00 | 64 | 1016.3 |
| 20260906004304 | 82 | 78 | 3.0 | 4.0 | 0.00 | 0.00 | 0.00 | 64 | 1016.3 |
| 20260906004204 | 82 | 78 | 3.0 | 4.0 | 0.00 | 0.00 | 0.00 | 64 | 1016.3 |
| 20260906004104 | 82 | 78 | 3.0 | 4.0 | 0.00 | 0.00 | 0.00 | 65 | 1016.3 |
| 20260906004005 | 82 | 77 | 3.0 | 4.0 | 0.00 | 0.00 | 0.00 | 65 | 1016.2 |
| 20260906003905 | 82 | 91 | 2.0 | 4.0 | 0.00 | 0.00 | 0.00 | 65 | 1016.3 |
| 20260906003802 | 82 | 88 | 2.0 | 4.0 | 0.00 | 0.00 | 0.00 | 65 | 1016.3 |
| 20260906003701 | 82 | 72 | 2.0 | 4.0 | 0.00 | 0.00 | 0.00 | 65 | 1016.3 |
| 20260906003600 | 82 | 91 | 2.0 | 4.0 | 0.00 | 0.00 | 0.00 | 65 | 1016.3 |
| 20260906003458 | 82 | 101 | 2.0 | 4.0 | 0.00 | 0.00 | 0.00 | 65 | 1016.3 |
| 20260906003400 | 82 | 101 | 2.0 | 4.0 | 0.00 | 0.00 | 0.00 | 65 | 1016.3 |
| 20260906003304 | 82 | 102 | 2.0 | 4.0 | 0.00 | 0.00 | 0.00 | 65 | 1016.3 |
| 20260906003201 | 82 | 102 | 2.0 | 4.0 | 0.00 | 0.00 | 0.00 | 65 | 1016.3 |
| 20260906003056 | 82 | 169 | 2.0 | 4.0 | 0.00 | 0.00 | 0.00 | 65 | 1016.4 |
| 20260906002953 | 82 | 169 | 1.0 | 4.0 | 0.00 | 0.00 | 0.00 | 65 | 1016.4 |
| 20260906002854 | 82 | 169 | 1.0 | 4.0 | 0.00 | 0.00 | 0.00 | 65 | 1016.4 |
| 20260906002739 | 82 | 169 | 1.0 | 4.0 | 0.00 | 0.00 | 0.00 | 65 | 1016.4 |
| 20260906002716 | 82 | 169 | 1.0 | 3.0 | 0.00 | 0.00 | 0.00 | 65 | 1016.3 |
| 20260906002703 | 82 | 169 | 1.0 | 3.0 | 0.00 | 0.00 | 0.00 | 65 | 1016.3 |
| 20260906002439 | 82 | 169 | 1.0 | 3.0 | 0.00 | 0.00 | 0.00 | 65 | 1016.3 |
| 20260906002412 | 82 | 169 | 1.0 | 3.0 | 0.00 | 0.00 | 0.00 | 65 | 1016.4 |
| 20260906002357 | 82 | 169 | 1.0 | 3.0 | 0.00 | 0.00 | 0.00 | 65 | 1016.3 |
| 20260906002142 | 82 | 169 | 1.0 | 3.0 | 0.00 | 0.00 | 0.00 | 65 | 1016.5 |
| 20260906002036 | 82 | 187 | 1.0 | 3.0 | 0.00 | 0.00 | 0.00 | 65 | 1016.4 |
| 20260906001933 | 82 | 187 | 1.0 | 3.0 | 0.00 | 0.00 | 0.00 | 65 | 1016.5 |
| 20260906001833 | 82 | 187 | 1.0 | 3.0 | 0.00 | 0.00 | 0.00 | 65 | 1016.5 |
| 20260906001731 | 82 | 187 | 1.0 | 4.0 | 0.00 | 0.00 | 0.00 | 65 | 1016.4 |
| 20260906001658 | 82 | 132 | 1.0 | 4.0 | 0.00 | 0.00 | 0.00 | 65 | 1016.5 |
| 20260906001648 | 82 | 152 | 1.0 | 4.0 | 0.00 | 0.00 | 0.00 | 65 | 1016.5 |
| 20260906001433 | 82 | 132 | 1.0 | 4.0 | 0.00 | 0.00 | 0.00 | 65 | 1016.4 |
| 20260906001316 | 82 | 132 | 1.0 | 4.0 | 0.00 | 0.00 | 0.00 | 65 | 1016.5 |
| 20260906001216 | 82 | 132 | 1.0 | 4.0 | 0.00 | 0.00 | 0.00 | 65 | 1016.5 |
| 20260906001118 | 82 | 111 | 1.0 | 4.0 | 0.00 | 0.00 | 0.00 | 66 | 1016.5 |
| 20260906001016 | 82 | 111 | 1.0 | 4.0 | 0.00 | 0.00 | 0.00 | 66 | 1016.5 |
| 20260906000917 | 82 | 111 | 1.0 | 4.0 | 0.00 | 0.00 | 0.00 | 65 | 1016.5 |
| 20260906000813 | 82 | 108 | 1.0 | 4.0 | 0.00 | 0.00 | 0.00 | 65 | 1016.5 |
| 20260906000712 | 82 | 141 | 1.0 | 3.0 | 0.00 | 0.00 | 0.00 | 65 | 1016.4 |
| 20260906000612 | 82 | 283 | 1.0 | 3.0 | 0.00 | 0.00 | 0.00 | 65 | 1016.3 |
| 20260906000513 | 82 | 94 | 1.0 | 3.0 | 0.00 | 0.00 | 0.00 | 65 | 1016.3 |
| 20260906000411 | 82 | 130 | 1.0 | 3.0 | 0.00 | 0.00 | 0.00 | 65 | 1016.3 |
| 20260906000305 | 82 | 130 | 1.0 | 3.0 | 0.00 | 0.00 | 0.00 | 65 | 1016.3 |
| 20260906000242 | 82 | 130 | 1.0 | 3.0 | 0.00 | 0.00 | 0.00 | 65 | 1016.3 |
| 20260906000230 | 82 | 129 | 1.0 | 3.0 | 0.00 | 0.00 | 0.00 | 65 | 1016.3 |
| 20260906000004 | 82 | 130 | 1.0 | 3.0 | 0.00 | 0.00 | 0.00 | 65 | 1016.3 |
| 20260905235904 | 82 | 136 | 1.0 | 3.0 | 0.00 | 0.00 | 0.00 | 65 | 1016.4 |
| 20260905235755 | 82 | 131 | 1.0 | 3.0 | 0.00 | 0.00 | 0.00 | 65 | 1016.4 |
| 20260905235654 | 82 | 200 | 1.0 | 3.0 | 0.00 | 0.00 | 0.00 | 65 | 1016.4 |
| 20260905235555 | 82 | 200 | 1.0 | 3.0 | 0.00 | 0.00 | 0.00 | 65 | 1016.4 |
| 20260905235456 | 82 | 200 | 1.0 | 3.0 | 0.00 | 0.00 | 0.00 | 65 | 1016.4 |
| 20260905235351 | 82 | 200 | 1.0 | 3.0 | 0.00 | 0.00 | 0.00 | 65 | 1016.5 |
| 20260905235246 | 82 | 200 | 1.0 | 4.0 | 0.00 | 0.00 | 0.00 | 65 | 1016.5 |
| 20260905235145 | 82 | 200 | 1.0 | 4.0 | 0.00 | 0.00 | 0.00 | 65 | 1016.5 |
| 20260905235049 | 82 | 200 | 1.0 | 4.0 | 0.00 | 0.00 | 0.00 | 66 | 1016.5 |
| 20260905234946 | 82 | 201 | 1.0 | 4.0 | 0.00 | 0.00 | 0.00 | 66 | 1016.5 |
| 20260905234845 | 82 | 198 | 1.0 | 4.0 | 0.00 | 0.00 | 0.00 | 65 | 1016.5 |
| 20260905234744 | 82 | 198 | 1.0 | 4.0 | 0.00 | 0.00 | 0.00 | 65 | 1016.4 |
| 20260905234642 | 82 | 198 | 1.0 | 4.0 | 0.00 | 0.00 | 0.00 | 65 | 1016.4 |
| 20260905234626 | 82 | 132 | 1.0 | 4.0 | 0.00 | 0.00 | 0.00 | 65 | 1016.3 |
| 20260905234612 | 82 | 208 | 1.0 | 4.0 | 0.00 | 0.00 | 0.00 | 65 | 1016.3 |
| 20260905234339 | 82 | 74 | 1.0 | 6.0 | 0.00 | 0.00 | 0.00 | 65 | 1016.3 |
| 20260905234233 | 82 | 71 | 1.0 | 6.0 | 0.00 | 0.00 | 0.00 | 65 | 1016.3 |
| 20260905234132 | 82 | 75 | 1.0 | 6.0 | 0.00 | 0.00 | 0.00 | 65 | 1016.3 |
| 20260905234032 | 82 | 75 | 1.0 | 6.0 | 0.00 | 0.00 | 0.00 | 65 | 1016.2 |
| 20260905233931 | 82 | 74 | 2.0 | 6.0 | 0.00 | 0.00 | 0.00 | 64 | 1016.2 |
| 20260905233855 | 82 | 119 | 2.0 | 6.0 | 0.00 | 0.00 | 0.00 | 64 | 1016.2 |
| 20260905233846 | 82 | 119 | 1.0 | 6.0 | 0.00 | 0.00 | 0.00 | 64 | 1016.2 |
| 20260905233625 | 82 | 119 | 2.0 | 6.0 | 0.00 | 0.00 | 0.00 | 64 | 1016.1 |
| 20260905233525 | 82 | 119 | 2.0 | 6.0 | 0.00 | 0.00 | 0.00 | 64 | 1016.2 |
| 20260905233426 | 82 | 89 | 2.0 | 6.0 | 0.00 | 0.00 | 0.00 | 64 | 1016.2 |
| 20260905233323 | 82 | 39 | 1.0 | 5.0 | 0.00 | 0.00 | 0.00 | 64 | 1016.2 |
| 20260905233221 | 82 | 103 | 1.0 | 5.0 | 0.00 | 0.00 | 0.00 | 64 | 1016.2 |
| 20260905233146 | 82 | 73 | 1.0 | 5.0 | 0.00 | 0.00 | 0.00 | 65 | 1016.2 |
| 20260905233137 | 82 | 132 | 1.0 | 5.0 | 0.00 | 0.00 | 0.00 | 65 | 1016.2 |
| 20260905232919 | 82 | 73 | 2.0 | 5.0 | 0.00 | 0.00 | 0.00 | 66 | 1016.3 |
| 20260905232817 | 82 | 73 | 2.0 | 5.0 | 0.00 | 0.00 | 0.00 | 66 | 1016.3 |
| 20260905232706 | 82 | 170 | 2.0 | 6.0 | 0.00 | 0.00 | 0.00 | 66 | 1016.3 |
| 20260905232602 | 82 | 208 | 2.0 | 6.0 | 0.00 | 0.00 | 0.00 | 66 | 1016.2 |
| 20260905232538 | 82 | 119 | 2.0 | 7.0 | 0.00 | 0.00 | 0.00 | 66 | 1016.1 |
| 20260905232531 | 82 | 120 | 3.0 | 7.0 | 0.00 | 0.00 | 0.00 | 66 | 1016.1 |
| 20260905232515 | 82 | 145 | 2.0 | 7.0 | 0.00 | 0.00 | 0.00 | 66 | 1016.2 |
| 20260905232446 | 82 | 119 | 2.0 | 7.0 | 0.00 | 0.00 | 0.00 | 66 | 1016.2 |
| 20260905232115 | 82 | 97 | 3.0 | 7.0 | 0.00 | 0.00 | 0.00 | 66 | 1016.1 |
| 20260905231957 | 82 | 66 | 3.0 | 7.0 | 0.00 | 0.00 | 0.00 | 66 | 1016.1 |
| 20260905231856 | 82 | 69 | 2.0 | 7.0 | 0.00 | 0.00 | 0.00 | 66 | 1016.1 |
| 20260905231757 | 82 | 77 | 2.0 | 7.0 | 0.00 | 0.00 | 0.00 | 66 | 1016.2 |
| 20260905231656 | 81 | 76 | 2.0 | 7.0 | 0.00 | 0.00 | 0.00 | 66 | 1016.1 |
| 20260905231555 | 81 | 76 | 2.0 | 7.0 | 0.00 | 0.00 | 0.00 | 67 | 1016.2 |
| 20260905231452 | 81 | 57 | 2.0 | 6.0 | 0.00 | 0.00 | 0.00 | 66 | 1016.2 |
| 20260905231353 | 81 | 107 | 2.0 | 6.0 | 0.00 | 0.00 | 0.00 | 67 | 1016.2 |
| 20260905231250 | 81 | 92 | 2.0 | 4.0 | 0.00 | 0.00 | 0.00 | 67 | 1016.2 |
| 20260905231145 | 81 | 91 | 2.0 | 4.0 | 0.00 | 0.00 | 0.00 | 67 | 1016.2 |
| 20260905231045 | 81 | 92 | 2.0 | 4.0 | 0.00 | 0.00 | 0.00 | 68 | 1016.2 |
| 20260905230944 | 81 | 89 | 2.0 | 4.0 | 0.00 | 0.00 | 0.00 | 68 | 1016.2 |
| 20260905230844 | 81 | 87 | 2.0 | 4.0 | 0.00 | 0.00 | 0.00 | 68 | 1016.1 |
| 20260905230741 | 81 | 87 | 2.0 | 4.0 | 0.00 | 0.00 | 0.00 | 68 | 1016.1 |
| 20260905230639 | 81 | 84 | 2.0 | 4.0 | 0.00 | 0.00 | 0.00 | 68 | 1016.1 |
| 20260905230540 | 81 | 84 | 2.0 | 7.0 | 0.00 | 0.00 | 0.00 | 68 | 1016.1 |
| 20260905230445 | 81 | 84 | 2.0 | 7.0 | 0.00 | 0.00 | 0.00 | 69 | 1016.2 |
| 20260905230337 | 81 | 83 | 2.0 | 7.0 | 0.00 | 0.00 | 0.00 | 68 | 1016.2 |
| 20260905230235 | 81 | 129 | 1.0 | 7.0 | 0.00 | 0.00 | 0.00 | 68 | 1016.2 |
| 20260905230206 | 81 | 130 | 1.0 | 7.0 | 0.00 | 0.00 | 0.00 | 68 | 1016.2 |
| 20260905230157 | 81 | 129 | 1.0 | 7.0 | 0.00 | 0.00 | 0.00 | 68 | 1016.3 |
| 20260905225931 | 81 | 130 | 1.0 | 7.0 | 0.00 | 0.00 | 0.00 | 68 | 1016.3 |
| 20260905225829 | 81 | 69 | 1.0 | 7.0 | 0.00 | 0.00 | 0.00 | 68 | 1016.3 |
| 20260905225729 | 81 | 186 | 1.0 | 7.0 | 0.00 | 0.00 | 0.00 | 68 | 1016.3 |
| 20260905225641 | 81 | 99 | 2.0 | 7.0 | 0.00 | 0.00 | 0.00 | 67 | 1016.0 |
| 20260905225628 | 81 | 88 | 1.0 | 7.0 | 0.00 | 0.00 | 0.00 | 69 | 1016.3 |
| 20260905225604 | 81 | 160 | 1.0 | 6.0 | 0.00 | 0.00 | 0.00 | 68 | 1016.3 |
| 20260905225450 | 81 | 99 | 2.0 | 7.0 | 0.00 | 0.00 | 0.00 | 68 | 1015.9 |
| 20260905225444 | 81 | 186 | 2.0 | 6.0 | 0.00 | 0.00 | 0.00 | 68 | 1016.2 |
| 20260905225426 | 81 | 160 | 2.0 | 6.0 | 0.00 | 0.00 | 0.00 | 68 | 1016.3 |
| 20260905225354 | 81 | 186 | 2.0 | 6.0 | 0.00 | 0.00 | 0.00 | 68 | 1016.2 |
| 20260905225315 | 81 | 113 | 2.0 | 6.0 | 0.00 | 0.00 | 0.00 | 68 | 1016.3 |
| 20260905225149 | 81 | 113 | 2.0 | 6.0 | 0.00 | 0.00 | 0.00 | 68 | 1016.3 |
| 20260905225028 | 81 | 113 | 3.0 | 6.0 | 0.00 | 0.00 | 0.00 | 68 | 1016.2 |
| 20260905225007 | 81 | 113 | 3.0 | 7.0 | 0.00 | 0.00 | 0.00 | 68 | 1016.2 |
| 20260905224839 | 81 | 90 | 3.0 | 7.0 | 0.00 | 0.00 | 0.00 | 68 | 1016.2 |
| 20260905224711 | 81 | 71 | 3.0 | 7.0 | 0.00 | 0.00 | 0.00 | 68 | 1016.1 |
| 20260905224646 | 81 | 71 | 3.0 | 7.0 | 0.00 | 0.00 | 0.00 | 68 | 1016.1 |
| 20260905224306 | 82 | 80 | 2.0 | 7.0 | 0.00 | 0.00 | 0.00 | 67 | 1016.0 |
| 20260905224202 | 82 | 79 | 2.0 | 7.0 | 0.00 | 0.00 | 0.00 | 67 | 1016.0 |
| 20260905224053 | 82 | 119 | 2.0 | 7.0 | 0.00 | 0.00 | 0.00 | 67 | 1016.0 |
| 20260905223951 | 82 | 68 | 2.0 | 7.0 | 0.00 | 0.00 | 0.00 | 67 | 1016.0 |
| 20260905223852 | 82 | 105 | 2.0 | 7.0 | 0.00 | 0.00 | 0.00 | 68 | 1016.0 |
| 20260905223752 | 82 | 117 | 1.0 | 7.0 | 0.00 | 0.00 | 0.00 | 68 | 1016.1 |
| 20260905223653 | 82 | 175 | 1.0 | 7.0 | 0.00 | 0.00 | 0.00 | 67 | 1016.1 |
| 20260905223552 | 82 | 62 | 1.0 | 7.0 | 0.00 | 0.00 | 0.00 | 67 | 1016.1 |
| 20260905223451 | 82 | 62 | 1.0 | 8.0 | 0.00 | 0.00 | 0.00 | 68 | 1016.1 |
| 20260905223351 | 82 | 62 | 1.0 | 8.0 | 0.00 | 0.00 | 0.00 | 68 | 1016.1 |
| 20260905223249 | 82 | 188 | 1.0 | 8.0 | 0.00 | 0.00 | 0.00 | 67 | 1016.2 |
| 20260905223219 | 82 | 167 | 1.0 | 8.0 | 0.00 | 0.00 | 0.00 | 68 | 1016.2 |
| 20260905223208 | 82 | 86 | 1.0 | 8.0 | 0.00 | 0.00 | 0.00 | 68 | 1016.2 |
| 20260905222944 | 82 | 113 | 1.0 | 8.0 | 0.00 | 0.00 | 0.00 | 68 | 1016.2 |
| 20260905222844 | 82 | 117 | 2.0 | 8.0 | 0.00 | 0.00 | 0.00 | 69 | 1016.2 |
| 20260905222742 | 82 | 180 | 2.0 | 8.0 | 0.00 | 0.00 | 0.00 | 68 | 1016.2 |
| 20260905222642 | 82 | 180 | 2.0 | 8.0 | 0.00 | 0.00 | 0.00 | 68 | 1016.3 |
| 20260905222529 | 82 | 180 | 2.0 | 8.0 | 0.00 | 0.00 | 0.00 | 68 | 1016.3 |
| 20260905222426 | 82 | 104 | 2.0 | 8.0 | 0.00 | 0.00 | 0.00 | 68 | 1016.4 |
| 20260905222328 | 82 | 163 | 2.0 | 8.0 | 0.00 | 0.00 | 0.00 | 68 | 1016.4 |
| 20260905222228 | 82 | 218 | 2.0 | 8.0 | 0.00 | 0.00 | 0.00 | 68 | 1016.4 |
| 20260905222127 | 82 | 217 | 2.0 | 8.0 | 0.00 | 0.00 | 0.00 | 68 | 1016.5 |
| 20260905222022 | 82 | 218 | 2.0 | 8.0 | 0.00 | 0.00 | 0.00 | 68 | 1016.5 |
| 20260905221924 | 82 | 138 | 2.0 | 8.0 | 0.00 | 0.00 | 0.00 | 68 | 1016.5 |
| 20260905221821 | 82 | 183 | 2.0 | 8.0 | 0.00 | 0.00 | 0.00 | 68 | 1016.5 |
| 20260905221805 | 82 | 145 | 2.0 | 8.0 | 0.00 | 0.00 | 0.00 | 68 | 1016.5 |
| 20260905221752 | 82 | 144 | 2.0 | 8.0 | 0.00 | 0.00 | 0.00 | 68 | 1016.5 |
| 20260905221518 | 82 | 167 | 2.0 | 8.0 | 0.00 | 0.00 | 0.00 | 67 | 1016.5 |
| 20260905221420 | 82 | 132 | 2.0 | 7.0 | 0.00 | 0.00 | 0.00 | 68 | 1016.7 |
| 20260905221317 | 82 | 234 | 2.0 | 6.0 | 0.00 | 0.00 | 0.00 | 67 | 1016.7 |
| 20260905221217 | 82 | 140 | 2.0 | 8.0 | 0.00 | 0.00 | 0.00 | 67 | 1016.7 |
| 20260905221116 | 82 | 140 | 2.0 | 8.0 | 0.00 | 0.00 | 0.00 | 67 | 1016.7 |
| 20260905221010 | 82 | 188 | 2.0 | 8.0 | 0.00 | 0.00 | 0.00 | 67 | 1016.7 |
| 20260905220913 | 82 | 145 | 2.0 | 8.0 | 0.00 | 0.00 | 0.00 | 66 | 1016.7 |
| 20260905220809 | 82 | 128 | 2.0 | 8.0 | 0.00 | 0.00 | 0.00 | 66 | 1016.8 |
| 20260905220706 | 82 | 86 | 3.0 | 8.0 | 0.00 | 0.00 | 0.00 | 66 | 1016.7 |
| 20260905220605 | 82 | 134 | 3.0 | 11.0 | 0.00 | 0.00 | 0.00 | 66 | 1016.8 |
| 20260905220501 | 83 | 173 | 3.0 | 11.0 | 0.00 | 0.00 | 0.00 | 65 | 1016.7 |
| 20260905220400 | 83 | 150 | 3.0 | 11.0 | 0.00 | 0.00 | 0.00 | 65 | 1016.8 |
| 20260905220258 | 83 | 111 | 3.0 | 11.0 | 0.00 | 0.00 | 0.00 | 65 | 1016.8 |
| 20260905220201 | 83 | 174 | 3.0 | 11.0 | 0.00 | 0.00 | 0.00 | 65 | 1016.8 |
| 20260905220059 | 83 | 82 | 3.0 | 11.0 | 0.00 | 0.00 | 0.00 | 65 | 1016.9 |
| 20260905215953 | 83 | 81 | 3.0 | 11.0 | 0.00 | 0.00 | 0.00 | 65 | 1016.9 |
| 20260905215853 | 83 | 26 | 3.0 | 11.0 | 0.00 | 0.00 | 0.00 | 66 | 1016.9 |
| 20260905215753 | 83 | 175 | 3.0 | 11.0 | 0.00 | 0.00 | 0.00 | 65 | 1017.0 |
| 20260905215652 | 83 | 154 | 3.0 | 11.0 | 0.00 | 0.00 | 0.00 | 66 | 1017.0 |
| 20260905215555 | 83 | 121 | 2.0 | 9.0 | 0.00 | 0.00 | 0.00 | 66 | 1017.0 |
| 20260905215439 | 83 | 161 | 2.0 | 9.0 | 0.00 | 0.00 | 0.00 | 67 | 1017.1 |
| 20260905215340 | 83 | 142 | 3.0 | 11.0 | 0.00 | 0.00 | 0.00 | 65 | 1017.0 |
| 20260905215240 | 83 | 123 | 3.0 | 11.0 | 0.00 | 0.00 | 0.00 | 65 | 1017.1 |
| 20260905215151 | 83 | 219 | 3.0 | 11.0 | 0.00 | 0.00 | 0.00 | 65 | 1017.1 |
| 20260905215040 | 83 | 190 | 4.0 | 11.0 | 0.00 | 0.00 | 0.00 | 66 | 1017.1 |
| 20260905214936 | 83 | 190 | 4.0 | 11.0 | 0.00 | 0.00 | 0.00 | 66 | 1017.1 |
| 20260905214926 | 83 | 124 | 4.0 | 11.0 | 0.00 | 0.00 | 0.00 | 65 | 1017.1 |
| 20260905214908 | 83 | 93 | 4.0 | 11.0 | 0.00 | 0.00 | 0.00 | 65 | 1017.1 |
| 20260905214711 | 84 | 105 | 4.0 | 11.0 | 0.00 | 0.00 | 0.00 | 65 | 1017.1 |
| 20260905214659 | 84 | 90 | 4.0 | 11.0 | 0.00 | 0.00 | 0.00 | 65 | 1017.1 |
| 20260905214429 | 84 | 124 | 4.0 | 12.0 | 0.00 | 0.00 | 0.00 | 64 | 1017.1 |
| 20260905214329 | 84 | 134 | 4.0 | 12.0 | 0.00 | 0.00 | 0.00 | 64 | 1017.1 |
| 20260905214235 | 85 | 92 | 4.0 | 12.0 | 0.00 | 0.00 | 0.00 | 64 | 1017.0 |
| 20260905214128 | 85 | 109 | 4.0 | 13.0 | 0.00 | 0.00 | 0.00 | 64 | 1017.0 |
| 20260905214028 | 85 | 77 | 4.0 | 13.0 | 0.00 | 0.00 | 0.00 | 64 | 1016.9 |
| 20260905213918 | 85 | 187 | 4.0 | 13.0 | 0.00 | 0.00 | 0.00 | 63 | 1016.9 |
| 20260905213819 | 85 | 80 | 3.0 | 13.0 | 0.00 | 0.00 | 0.00 | 64 | 1016.8 |
| 20260905213719 | 85 | 108 | 4.0 | 13.0 | 0.00 | 0.00 | 0.00 | 64 | 1016.8 |
| 20260905213620 | 86 | 180 | 4.0 | 13.0 | 0.00 | 0.00 | 0.00 | 63 | 1016.8 |
| 20260905213540 | 87 | 182 | 4.0 | 12.0 | 0.00 | 0.00 | 0.00 | 63 | 1016.9 |
| 20260905213535 | 86 | 169 | 3.0 | 13.0 | 0.00 | 0.00 | 0.00 | 62 | 1016.9 |
| 20260905213521 | 86 | 138 | 4.0 | 13.0 | 0.00 | 0.00 | 0.00 | 63 | 1016.8 |
| 20260905213501 | 86 | 68 | 4.0 | 13.0 | 0.00 | 0.00 | 0.00 | 63 | 1016.8 |
| 20260905213437 | 86 | 109 | 4.0 | 13.0 | 0.00 | 0.00 | 0.00 | 63 | 1016.8 |
| 20260905213142 | 87 | 168 | 3.0 | 10.0 | 0.00 | 0.00 | 0.00 | 63 | 1016.8 |
| 20260905212950 | 87 | 200 | 4.0 | 12.0 | 0.00 | 0.00 | 0.00 | 62 | 1016.9 |
| 20260905212936 | 87 | 128 | 4.0 | 12.0 | 0.00 | 0.00 | 0.00 | 62 | 1016.9 |
| 20260905212705 | 87 | 202 | 4.0 | 12.0 | 0.00 | 0.00 | 0.00 | 62 | 1017.0 |
| 20260905212647 | 87 | 55 | 4.0 | 12.0 | 0.00 | 0.00 | 0.00 | 62 | 1016.9 |
| 20260905212635 | 87 | 126 | 4.0 | 12.0 | 0.00 | 0.00 | 0.00 | 62 | 1017.0 |
| 20260905212353 | 87 | 110 | 4.0 | 15.0 | 0.00 | 0.00 | 0.00 | 61 | 1016.9 |
| 20260905212252 | 87 | 137 | 5.0 | 15.0 | 0.00 | 0.00 | 0.00 | 61 | 1016.9 |
| 20260905212151 | 88 | 17 | 5.0 | 15.0 | 0.00 | 0.00 | 0.00 | 61 | 1016.9 |
| 20260905212051 | 88 | 128 | 5.0 | 15.0 | 0.00 | 0.00 | 0.00 | 61 | 1016.9 |
| 20260905211954 | 88 | 148 | 5.0 | 15.0 | 0.00 | 0.00 | 0.00 | 60 | 1016.8 |
| 20260905211853 | 88 | 136 | 5.0 | 15.0 | 0.00 | 0.00 | 0.00 | 60 | 1016.9 |
| 20260905211800 | 88 | 39 | 5.0 | 15.0 | 0.00 | 0.00 | 0.00 | 59 | 1016.9 |
| 20260905211749 | 88 | 38 | 5.0 | 15.0 | 0.00 | 0.00 | 0.00 | 59 | 1016.8 |
| 20260905211732 | 88 | 67 | 5.0 | 15.0 | 0.00 | 0.00 | 0.00 | 59 | 1016.8 |
| 20260905211451 | 88 | 80 | 5.0 | 15.0 | 0.00 | 0.00 | 0.00 | 60 | 1016.9 |
| 20260905211423 | 88 | 69 | 5.0 | 15.0 | 0.00 | 0.00 | 0.00 | 60 | 1016.9 |
| 20260905211404 | 88 | 27 | 5.0 | 15.0 | 0.00 | 0.00 | 0.00 | 60 | 1017.0 |
| 20260905211142 | 88 | 76 | 5.0 | 15.0 | 0.00 | 0.00 | 0.00 | 59 | 1016.9 |
| 20260905211038 | 88 | 58 | 5.0 | 15.0 | 0.00 | 0.00 | 0.00 | 60 | 1016.9 |
| 20260905210939 | 88 | 34 | 6.0 | 15.0 | 0.00 | 0.00 | 0.00 | 60 | 1017.0 |
| 20260905210828 | 88 | 41 | 6.0 | 14.0 | 0.00 | 0.00 | 0.00 | 60 | 1016.9 |
| 20260905210735 | 88 | 82 | 6.0 | 14.0 | 0.00 | 0.00 | 0.00 | 61 | 1016.9 |
| 20260905210628 | 88 | 30 | 6.0 | 14.0 | 0.00 | 0.00 | 0.00 | 60 | 1016.9 |
| 20260905210529 | 88 | 86 | 6.0 | 14.0 | 0.00 | 0.00 | 0.00 | 60 | 1016.9 |
| 20260905210429 | 88 | 0 | 5.0 | 14.0 | 0.00 | 0.00 | 0.00 | 61 | 1017.0 |
| 20260905210324 | 88 | 101 | 5.0 | 14.0 | 0.00 | 0.00 | 0.00 | 61 | 1017.0 |
| 20260905210303 | 87 | 57 | 5.0 | 14.0 | 0.00 | 0.00 | 0.00 | 61 | 1017.0 |
| 20260905210251 | 88 | 83 | 5.0 | 14.0 | 0.00 | 0.00 | 0.00 | 61 | 1017.0 |
| 20260905210022 | 88 | 65 | 5.0 | 12.0 | 0.00 | 0.00 | 0.00 | 61 | 1016.9 |
| 20260905205922 | 87 | 17 | 5.0 | 12.0 | 0.00 | 0.00 | 0.00 | 62 | 1017.0 |
| 20260905205852 | 87 | 50 | 5.0 | 12.0 | 0.00 | 0.00 | 0.00 | 62 | 1016.9 |
| 20260905205841 | 87 | 40 | 5.0 | 12.0 | 0.00 | 0.00 | 0.00 | 62 | 1016.9 |
| 20260905205617 | 87 | 54 | 4.0 | 12.0 | 0.00 | 0.00 | 0.00 | 61 | 1016.8 |
| 20260905205515 | 87 | 73 | 4.0 | 12.0 | 0.00 | 0.00 | 0.00 | 62 | 1016.9 |
| 20260905205416 | 87 | 69 | 4.0 | 12.0 | 0.00 | 0.00 | 0.00 | 62 | 1016.9 |
| 20260905205313 | 87 | 36 | 4.0 | 12.0 | 0.00 | 0.00 | 0.00 | 61 | 1016.8 |
| 20260905205212 | 87 | 74 | 4.0 | 12.0 | 0.00 | 0.00 | 0.00 | 61 | 1016.9 |
| 20260905205109 | 87 | 90 | 4.0 | 12.0 | 0.00 | 0.00 | 0.00 | 61 | 1016.9 |
| 20260905205013 | 87 | 27 | 4.0 | 12.0 | 0.00 | 0.00 | 0.00 | 61 | 1016.8 |
| 20260905204909 | 88 | 49 | 4.0 | 11.0 | 0.00 | 0.00 | 0.00 | 61 | 1016.8 |
| 20260905204808 | 88 | 70 | 3.0 | 11.0 | 0.00 | 0.00 | 0.00 | 61 | 1016.8 |
| 20260905204708 | 88 | 90 | 4.0 | 11.0 | 0.00 | 0.00 | 0.00 | 61 | 1016.8 |
| 20260905204606 | 88 | 96 | 4.0 | 11.0 | 0.00 | 0.00 | 0.00 | 61 | 1016.8 |
| 20260905204505 | 87 | 32 | 4.0 | 11.0 | 0.00 | 0.00 | 0.00 | 62 | 1016.8 |
| 20260905204405 | 87 | 138 | 4.0 | 11.0 | 0.00 | 0.00 | 0.00 | 61 | 1016.7 |
| 20260905204305 | 87 | 30 | 4.0 | 11.0 | 0.00 | 0.00 | 0.00 | 62 | 1016.8 |
| 20260905204205 | 87 | 147 | 4.0 | 11.0 | 0.00 | 0.00 | 0.00 | 61 | 1016.8 |
| 20260905204107 | 87 | 28 | 4.0 | 11.0 | 0.00 | 0.00 | 0.00 | 62 | 1016.8 |
| 20260905204042 | 87 | 55 | 5.0 | 13.0 | 0.00 | 0.00 | 0.00 | 61 | 1016.8 |
| 20260905204031 | 87 | 24 | 5.0 | 11.0 | 0.00 | 0.00 | 0.00 | 61 | 1016.8 |
| 20260905203804 | 87 | 355 | 6.0 | 13.0 | 0.00 | 0.00 | 0.00 | 61 | 1016.9 |
| 20260905203705 | 87 | 81 | 6.0 | 13.0 | 0.00 | 0.00 | 0.00 | 62 | 1016.9 |
| 20260905203557 | 87 | 59 | 5.0 | 13.0 | 0.00 | 0.00 | 0.00 | 61 | 1016.9 |
| 20260905203514 | 88 | 38 | 6.0 | 13.0 | 0.00 | 0.00 | 0.00 | 59 | 1016.8 |
| 20260905203503 | 87 | 0 | 6.0 | 13.0 | 0.00 | 0.00 | 0.00 | 61 | 1016.9 |
| 20260905203442 | 87 | 44 | 6.0 | 13.0 | 0.00 | 0.00 | 0.00 | 61 | 1016.9 |
| 20260905203321 | 88 | 27 | 6.0 | 13.0 | 0.00 | 0.00 | 0.00 | 60 | 1016.9 |
| 20260905203132 | 88 | 33 | 5.0 | 13.0 | 0.00 | 0.00 | 0.00 | 60 | 1016.9 |
| 20260905203118 | 88 | 69 | 6.0 | 13.0 | 0.00 | 0.00 | 0.00 | 59 | 1017.0 |
| 20260905202858 | 88 | 42 | 5.0 | 13.0 | 0.00 | 0.00 | 0.00 | 59 | 1017.0 |
| 20260905202758 | 88 | 49 | 5.0 | 13.0 | 0.00 | 0.00 | 0.00 | 59 | 1016.9 |
| 20260905202655 | 88 | 94 | 5.0 | 13.0 | 0.00 | 0.00 | 0.00 | 60 | 1017.0 |
| 20260905202558 | 88 | 91 | 5.0 | 13.0 | 0.00 | 0.00 | 0.00 | 60 | 1017.0 |
| 20260905202454 | 88 | 88 | 4.0 | 13.0 | 0.00 | 0.00 | 0.00 | 60 | 1017.0 |
| 20260905202355 | 88 | 114 | 4.0 | 11.0 | 0.00 | 0.00 | 0.00 | 61 | 1017.0 |
| 20260905202254 | 88 | 86 | 4.0 | 10.0 | 0.00 | 0.00 | 0.00 | 60 | 1017.0 |
| 20260905202153 | 88 | 106 | 5.0 | 10.0 | 0.00 | 0.00 | 0.00 | 60 | 1017.0 |
| 20260905202053 | 88 | 80 | 5.0 | 10.0 | 0.00 | 0.00 | 0.00 | 59 | 1017.0 |
| 20260905202026 | 89 | 67 | 5.0 | 10.0 | 0.00 | 0.00 | 0.00 | 59 | 1017.0 |
| 20260905202014 | 88 | 86 | 5.0 | 10.0 | 0.00 | 0.00 | 0.00 | 59 | 1017.0 |
| 20260905201827 | 89 | 61 | 5.0 | 10.0 | 0.00 | 0.00 | 0.00 | 59 | 1017.0 |
| 20260905201810 | 89 | 36 | 5.0 | 10.0 | 0.00 | 0.00 | 0.00 | 59 | 1017.1 |
| 20260905201545 | 89 | 31 | 5.0 | 10.0 | 0.00 | 0.00 | 0.00 | 58 | 1017.0 |
| 20260905201445 | 89 | 60 | 5.0 | 10.0 | 0.00 | 0.00 | 0.00 | 57 | 1017.0 |
| 20260905201418 | 90 | 22 | 5.0 | 12.0 | 0.00 | 0.00 | 0.00 | 57 | 1017.0 |
| 20260905201406 | 90 | 38 | 5.0 | 12.0 | 0.00 | 0.00 | 0.00 | 57 | 1017.1 |
| 20260905201141 | 90 | 64 | 5.0 | 12.0 | 0.00 | 0.00 | 0.00 | 57 | 1017.1 |
| 20260905201057 | 91 | 59 | 4.0 | 12.0 | 0.00 | 0.00 | 0.00 | 56 | 1017.1 |
| 20260905201042 | 91 | 30 | 5.0 | 12.0 | 0.00 | 0.00 | 0.00 | 56 | 1017.1 |
| 20260905201035 | 92 | 62 | 4.0 | 12.0 | 0.00 | 0.00 | 0.00 | 54 | 1017.1 |
| 20260905201030 | 92 | 47 | 4.0 | 12.0 | 0.00 | 0.00 | 0.00 | 55 | 1017.1 |
| 20260905201014 | 91 | 32 | 5.0 | 12.0 | 0.00 | 0.00 | 0.00 | 56 | 1017.1 |
| 20260905200823 | 92 | 86 | 4.0 | 12.0 | 0.00 | 0.00 | 0.00 | 55 | 1017.1 |
| 20260905200510 | 92 | 62 | 3.0 | 10.0 | 0.00 | 0.00 | 0.00 | 54 | 1017.2 |
| 20260905200500 | 92 | 30 | 4.0 | 12.0 | 0.00 | 0.00 | 0.00 | 54 | 1017.1 |
| 20260905200308 | 92 | 0 | 3.0 | 10.0 | 0.00 | 0.00 | 0.00 | 53 | 1017.1 |
| 20260905200258 | 92 | 43 | 3.0 | 10.0 | 0.00 | 0.00 | 0.00 | 53 | 1017.1 |
| 20260905200038 | 92 | 342 | 3.0 | 10.0 | 0.00 | 0.00 | 0.00 | 52 | 1017.2 |
| 20260905195938 | 92 | 333 | 3.0 | 10.0 | 0.00 | 0.00 | 0.00 | 52 | 1017.1 |
| 20260905195837 | 92 | 255 | 3.0 | 10.0 | 0.00 | 0.00 | 0.00 | 52 | 1017.1 |
| 20260905195739 | 92 | 283 | 3.0 | 10.0 | 0.00 | 0.00 | 0.00 | 53 | 1017.2 |
| 20260905195638 | 92 | 23 | 3.0 | 10.0 | 0.00 | 0.00 | 0.00 | 52 | 1017.1 |
| 20260905195539 | 92 | 307 | 3.0 | 10.0 | 0.00 | 0.00 | 0.00 | 52 | 1017.1 |
| 20260905195433 | 92 | 282 | 3.0 | 9.0 | 0.00 | 0.00 | 0.00 | 53 | 1017.2 |
| 20260905195356 | 92 | 342 | 3.0 | 7.0 | 0.00 | 0.00 | 0.00 | 53 | 1017.2 |
| 20260905195350 | 92 | 342 | 3.0 | 7.0 | 0.00 | 0.00 | 0.00 | 53 | 1017.1 |
| 20260905195340 | 92 | 205 | 3.0 | 9.0 | 0.00 | 0.00 | 0.00 | 53 | 1017.2 |
| 20260905195314 | 92 | 271 | 3.0 | 9.0 | 0.00 | 0.00 | 0.00 | 52 | 1017.2 |
| 20260905194935 | 92 | 72 | 3.0 | 7.0 | 0.00 | 0.00 | 0.00 | 54 | 1017.2 |
| 20260905194835 | 92 | 61 | 3.0 | 6.0 | 0.00 | 0.00 | 0.00 | 53 | 1017.2 |
| 20260905194800 | 92 | 28 | 3.0 | 6.0 | 0.00 | 0.00 | 0.00 | 54 | 1017.3 |
| 20260905194750 | 92 | 61 | 3.0 | 6.0 | 0.00 | 0.00 | 0.00 | 55 | 1017.2 |
| 20260905194530 | 92 | 340 | 3.0 | 6.0 | 0.00 | 0.00 | 0.00 | 54 | 1017.2 |
| 20260905194430 | 92 | 52 | 2.0 | 6.0 | 0.00 | 0.00 | 0.00 | 54 | 1017.3 |
| 20260905194330 | 92 | 89 | 2.0 | 6.0 | 0.00 | 0.00 | 0.00 | 54 | 1017.3 |
| 20260905194230 | 92 | 114 | 2.0 | 6.0 | 0.00 | 0.00 | 0.00 | 53 | 1017.3 |
| 20260905194129 | 92 | 49 | 2.0 | 6.0 | 0.00 | 0.00 | 0.00 | 53 | 1017.3 |
| 20260905194030 | 92 | 46 | 3.0 | 6.0 | 0.00 | 0.00 | 0.00 | 55 | 1017.3 |
| 20260905194004 | 92 | 98 | 3.0 | 6.0 | 0.00 | 0.00 | 0.00 | 54 | 1017.3 |
| 20260905193954 | 92 | 94 | 3.0 | 6.0 | 0.00 | 0.00 | 0.00 | 54 | 1017.2 |
| 20260905193736 | 91 | 21 | 2.0 | 6.0 | 0.00 | 0.00 | 0.00 | 54 | 1017.3 |
| 20260905193630 | 91 | 22 | 2.0 | 6.0 | 0.00 | 0.00 | 0.00 | 55 | 1017.3 |
| 20260905193529 | 91 | 70 | 2.0 | 6.0 | 0.00 | 0.00 | 0.00 | 55 | 1017.3 |
| 20260905193436 | 91 | 75 | 2.0 | 6.0 | 0.00 | 0.00 | 0.00 | 54 | 1017.3 |
| 20260905193329 | 91 | 76 | 2.0 | 6.0 | 0.00 | 0.00 | 0.00 | 54 | 1017.3 |
| 20260905193229 | 91 | 67 | 2.0 | 6.0 | 0.00 | 0.00 | 0.00 | 54 | 1017.3 |
| 20260905193130 | 91 | 66 | 2.0 | 6.0 | 0.00 | 0.00 | 0.00 | 54 | 1017.3 |
| 20260905193030 | 91 | 59 | 2.0 | 7.0 | 0.00 | 0.00 | 0.00 | 54 | 1017.3 |
| 20260905192929 | 92 | 51 | 2.0 | 7.0 | 0.00 | 0.00 | 0.00 | 55 | 1017.3 |
| 20260905192830 | 92 | 11 | 3.0 | 8.0 | 0.00 | 0.00 | 0.00 | 54 | 1017.4 |
| 20260905192730 | 92 | 11 | 3.0 | 8.0 | 0.00 | 0.00 | 0.00 | 54 | 1017.4 |
| 20260905192635 | 92 | 5 | 3.0 | 8.0 | 0.00 | 0.00 | 0.00 | 54 | 1017.4 |
| 20260905192609 | 92 | 51 | 3.0 | 8.0 | 0.00 | 0.00 | 0.00 | 54 | 1017.5 |
| 20260905192555 | 92 | 64 | 3.0 | 8.0 | 0.00 | 0.00 | 0.00 | 55 | 1017.4 |
| 20260905192329 | 92 | 301 | 3.0 | 8.0 | 0.00 | 0.00 | 0.00 | 54 | 1017.5 |
| 20260905192230 | 92 | 317 | 4.0 | 8.0 | 0.00 | 0.00 | 0.00 | 54 | 1017.5 |
| 20260905192131 | 92 | 306 | 4.0 | 8.0 | 0.00 | 0.00 | 0.00 | 54 | 1017.5 |
| 20260905192031 | 92 | 323 | 4.0 | 8.0 | 0.00 | 0.00 | 0.00 | 54 | 1017.5 |
| 20260905191931 | 92 | 299 | 4.0 | 8.0 | 0.00 | 0.00 | 0.00 | 54 | 1017.6 |
| 20260905191829 | 92 | 340 | 4.0 | 8.0 | 0.00 | 0.00 | 0.00 | 54 | 1017.6 |
| 20260905191730 | 92 | 0 | 3.0 | 8.0 | 0.00 | 0.00 | 0.00 | 55 | 1017.7 |
| 20260905191705 | 92 | 185 | 3.0 | 8.0 | 0.00 | 0.00 | 0.00 | 55 | 1017.8 |
| 20260905191655 | 92 | 345 | 3.0 | 8.0 | 0.00 | 0.00 | 0.00 | 56 | 1017.7 |
| 20260905191429 | 92 | 288 | 4.0 | 9.0 | 0.00 | 0.00 | 0.00 | 55 | 1017.8 |
| 20260905191330 | 92 | 320 | 4.0 | 9.0 | 0.00 | 0.00 | 0.00 | 55 | 1017.9 |
| 20260905191229 | 91 | 226 | 4.0 | 9.0 | 0.00 | 0.00 | 0.00 | 56 | 1017.9 |
| 20260905191130 | 91 | 207 | 3.0 | 9.0 | 0.00 | 0.00 | 0.00 | 55 | 1017.8 |
| 20260905191030 | 91 | 346 | 3.0 | 9.0 | 0.00 | 0.00 | 0.00 | 54 | 1017.8 |
| 20260905190929 | 92 | 308 | 3.0 | 9.0 | 0.00 | 0.00 | 0.00 | 55 | 1017.7 |
| 20260905190830 | 92 | 240 | 3.0 | 9.0 | 0.00 | 0.00 | 0.00 | 56 | 1017.8 |
| 20260905190729 | 91 | 169 | 3.0 | 9.0 | 0.00 | 0.00 | 0.00 | 55 | 1017.8 |
| 20260905190629 | 91 | 299 | 3.0 | 9.0 | 0.00 | 0.00 | 0.00 | 56 | 1017.8 |
| 20260905190530 | 92 | 329 | 3.0 | 9.0 | 0.00 | 0.00 | 0.00 | 55 | 1017.7 |
| 20260905190430 | 91 | 319 | 3.0 | 8.0 | 0.00 | 0.00 | 0.00 | 55 | 1017.7 |
| 20260905190329 | 92 | 56 | 3.0 | 9.0 | 0.00 | 0.00 | 0.00 | 55 | 1017.7 |
| 20260905190231 | 92 | 275 | 3.0 | 9.0 | 0.00 | 0.00 | 0.00 | 56 | 1017.8 |
| 20260905190130 | 91 | 19 | 3.0 | 9.0 | 0.00 | 0.00 | 0.00 | 55 | 1017.8 |
| 20260905190023 | 91 | 9 | 2.0 | 9.0 | 0.00 | 0.00 | 0.00 | 55 | 1017.7 |
| 20260905185925 | 91 | 331 | 3.0 | 9.0 | 0.00 | 0.00 | 0.00 | 55 | 1017.7 |
| 20260905185826 | 91 | 29 | 2.0 | 9.0 | 0.00 | 0.00 | 0.00 | 55 | 1017.8 |
| 20260905185724 | 91 | 30 | 2.0 | 9.0 | 0.00 | 0.00 | 0.00 | 56 | 1017.9 |
| 20260905185626 | 91 | 80 | 2.0 | 9.0 | 0.00 | 0.00 | 0.00 | 56 | 1017.9 |
| 20260905185522 | 91 | 71 | 2.0 | 9.0 | 0.00 | 0.00 | 0.00 | 55 | 1017.9 |
| 20260905185420 | 91 | 57 | 2.0 | 9.0 | 0.00 | 0.00 | 0.00 | 55 | 1017.9 |
| 20260905185320 | 91 | 119 | 2.0 | 4.0 | 0.00 | 0.00 | 0.00 | 55 | 1017.9 |
| 20260905185222 | 91 | 119 | 2.0 | 5.0 | 0.00 | 0.00 | 0.00 | 56 | 1017.9 |
| 20260905185120 | 91 | 110 | 2.0 | 5.0 | 0.00 | 0.00 | 0.00 | 56 | 1017.8 |
| 20260905185015 | 91 | 86 | 2.0 | 8.0 | 0.00 | 0.00 | 0.00 | 55 | 1017.9 |
| 20260905184912 | 91 | 81 | 2.0 | 8.0 | 0.00 | 0.00 | 0.00 | 56 | 1018.0 |
| 20260905184811 | 91 | 78 | 2.0 | 8.0 | 0.00 | 0.00 | 0.00 | 56 | 1017.9 |
| 20260905184748 | 91 | 31 | 3.0 | 8.0 | 0.00 | 0.00 | 0.00 | 55 | 1017.9 |
| 20260905184736 | 91 | 78 | 3.0 | 8.0 | 0.00 | 0.00 | 0.00 | 56 | 1018.0 |
| 20260905184533 | 91 | 348 | 4.0 | 9.0 | 0.00 | 0.00 | 0.00 | 56 | 1017.9 |
| 20260905184519 | 91 | 32 | 3.0 | 8.0 | 0.00 | 0.00 | 0.00 | 56 | 1018.0 |
| 20260905184454 | 91 | 5 | 3.0 | 8.0 | 0.00 | 0.00 | 0.00 | 56 | 1017.9 |
| 20260905184330 | 91 | 355 | 3.0 | 8.0 | 0.00 | 0.00 | 0.00 | 55 | 1017.9 |
| 20260905184106 | 91 | 80 | 4.0 | 9.0 | 0.00 | 0.00 | 0.00 | 55 | 1018.0 |
| 20260905184006 | 91 | 98 | 4.0 | 9.0 | 0.00 | 0.00 | 0.00 | 55 | 1017.9 |
| 20260905183907 | 91 | 76 | 4.0 | 9.0 | 0.00 | 0.00 | 0.00 | 55 | 1017.9 |
| 20260905183805 | 91 | 59 | 4.0 | 9.0 | 0.00 | 0.00 | 0.00 | 55 | 1017.9 |
| 20260905183709 | 91 | 51 | 4.0 | 9.0 | 0.00 | 0.00 | 0.00 | 54 | 1018.0 |
| 20260905183605 | 91 | 5 | 4.0 | 9.0 | 0.00 | 0.00 | 0.00 | 55 | 1017.9 |
| 20260905183505 | 91 | 323 | 4.0 | 9.0 | 0.00 | 0.00 | 0.00 | 56 | 1018.0 |
| 20260905183405 | 91 | 290 | 4.0 | 9.0 | 0.00 | 0.00 | 0.00 | 55 | 1018.0 |
| 20260905183303 | 91 | 305 | 3.0 | 9.0 | 0.00 | 0.00 | 0.00 | 54 | 1018.0 |
| 20260905183159 | 91 | 316 | 2.0 | 9.0 | 0.00 | 0.00 | 0.00 | 55 | 1018.0 |
| 20260905183100 | 91 | 317 | 2.0 | 9.0 | 0.00 | 0.00 | 0.00 | 55 | 1018.0 |
| 20260905182959 | 91 | 330 | 2.0 | 9.0 | 0.00 | 0.00 | 0.00 | 55 | 1018.0 |
| 20260905182900 | 91 | 22 | 2.0 | 9.0 | 0.00 | 0.00 | 0.00 | 56 | 1018.0 |
| 20260905182753 | 91 | 296 | 2.0 | 9.0 | 0.00 | 0.00 | 0.00 | 57 | 1018.1 |
| 20260905182655 | 91 | 31 | 2.0 | 7.0 | 0.00 | 0.00 | 0.00 | 57 | 1018.1 |
| 20260905182555 | 91 | 38 | 2.0 | 7.0 | 0.00 | 0.00 | 0.00 | 58 | 1018.1 |
| 20260905182453 | 90 | 82 | 2.0 | 7.0 | 0.00 | 0.00 | 0.00 | 58 | 1018.0 |
| 20260905182359 | 90 | 78 | 3.0 | 10.0 | 0.00 | 0.00 | 0.00 | 57 | 1018.0 |
| 20260905182247 | 90 | 78 | 3.0 | 10.0 | 0.00 | 0.00 | 0.00 | 57 | 1018.0 |
| 20260905182208 | 90 | 326 | 4.0 | 10.0 | 0.00 | 0.00 | 0.00 | 56 | 1018.2 |
| 20260905182157 | 90 | 78 | 4.0 | 10.0 | 0.00 | 0.00 | 0.00 | 57 | 1018.1 |
| 20260905182135 | 90 | 232 | 4.0 | 10.0 | 0.00 | 0.00 | 0.00 | 56 | 1018.2 |
| 20260905182012 | 90 | 326 | 4.0 | 10.0 | 0.00 | 0.00 | 0.00 | 56 | 1018.2 |
| 20260905181821 | 90 | 325 | 3.0 | 10.0 | 0.00 | 0.00 | 0.00 | 56 | 1018.4 |
| 20260905181808 | 90 | 312 | 3.0 | 10.0 | 0.00 | 0.00 | 0.00 | 57 | 1018.4 |
| 20260905181549 | 90 | 273 | 3.0 | 10.0 | 0.00 | 0.00 | 0.00 | 56 | 1018.4 |
| 20260905181443 | 90 | 298 | 3.0 | 10.0 | 0.00 | 0.00 | 0.00 | 56 | 1018.4 |
| 20260905181342 | 90 | 267 | 3.0 | 9.0 | 0.00 | 0.00 | 0.00 | 56 | 1018.4 |
| 20260905181330 | 91 | 311 | 2.0 | 5.0 | 0.00 | 0.00 | 0.00 | 57 | 1018.4 |
| 20260905181314 | 91 | 311 | 3.0 | 8.0 | 0.00 | 0.00 | 0.00 | 56 | 1018.4 |
| 20260905181041 | 90 | 310 | 2.0 | 5.0 | 0.00 | 0.00 | 0.00 | 57 | 1018.2 |
| 20260905180942 | 90 | 10 | 2.0 | 5.0 | 0.00 | 0.00 | 0.00 | 57 | 1018.4 |
| 20260905180840 | 90 | 10 | 2.0 | 5.0 | 0.00 | 0.00 | 0.00 | 57 | 1018.2 |
| 20260905180740 | 90 | 343 | 2.0 | 5.0 | 0.00 | 0.00 | 0.00 | 56 | 1018.4 |
| 20260905180648 | 90 | 291 | 2.0 | 5.0 | 0.00 | 0.00 | 0.00 | 57 | 1018.4 |
| 20260905180606 | 90 | 317 | 2.0 | 5.0 | 0.00 | 0.00 | 0.00 | 57 | 1018.4 |
| 20260905180435 | 91 | 9 | 2.0 | 5.0 | 0.00 | 0.00 | 0.00 | 58 | 1018.4 |
| 20260905180335 | 90 | 5 | 2.0 | 5.0 | 0.00 | 0.00 | 0.00 | 59 | 1018.4 |
| 20260905180235 | 90 | 35 | 2.0 | 5.0 | 0.00 | 0.00 | 0.00 | 58 | 1018.4 |
| 20260905180136 | 90 | 51 | 2.0 | 7.0 | 0.00 | 0.00 | 0.00 | 60 | 1018.5 |
| 20260905180033 | 90 | 31 | 2.0 | 7.0 | 0.00 | 0.00 | 0.00 | 60 | 1018.5 |
| 20260905175929 | 89 | 335 | 2.0 | 7.0 | 0.00 | 0.00 | 0.00 | 59 | 1018.4 |
| 20260905175830 | 89 | 300 | 2.0 | 7.0 | 0.00 | 0.00 | 0.00 | 60 | 1018.4 |
| 20260905175729 | 89 | 103 | 3.0 | 7.0 | 0.00 | 0.00 | 0.00 | 59 | 1018.5 |
| 20260905175629 | 89 | 80 | 3.0 | 7.0 | 0.00 | 0.00 | 0.00 | 60 | 1018.5 |
| 20260905175524 | 89 | 81 | 2.0 | 7.0 | 0.00 | 0.00 | 0.00 | 59 | 1018.5 |
| 20260905175423 | 89 | 31 | 3.0 | 7.0 | 0.00 | 0.00 | 0.00 | 58 | 1018.5 |
| 20260905175356 | 89 | 0 | 2.0 | 6.0 | 0.00 | 0.00 | 0.00 | 58 | 1018.6 |
| 20260905175345 | 89 | 34 | 3.0 | 7.0 | 0.00 | 0.00 | 0.00 | 58 | 1018.6 |
| 20260905175123 | 89 | 18 | 2.0 | 6.0 | 0.00 | 0.00 | 0.00 | 60 | 1018.6 |
| 20260905175053 | 89 | 79 | 2.0 | 7.0 | 0.00 | 0.00 | 0.00 | 59 | 1018.7 |
| 20260905175041 | 89 | 70 | 2.0 | 6.0 | 0.00 | 0.00 | 0.00 | 59 | 1018.6 |
| 20260905174816 | 89 | 37 | 2.0 | 7.0 | 0.00 | 0.00 | 0.00 | 59 | 1018.6 |
| 20260905174715 | 89 | 46 | 2.0 | 7.0 | 0.00 | 0.00 | 0.00 | 58 | 1018.6 |
| 20260905174616 | 89 | 49 | 3.0 | 7.0 | 0.00 | 0.00 | 0.00 | 58 | 1018.6 |
| 20260905174519 | 89 | 51 | 3.0 | 7.0 | 0.00 | 0.00 | 0.00 | 60 | 1018.6 |
| 20260905174416 | 89 | 74 | 3.0 | 7.0 | 0.00 | 0.00 | 0.00 | 59 | 1018.6 |
| 20260905174312 | 89 | 82 | 3.0 | 7.0 | 0.00 | 0.00 | 0.00 | 59 | 1018.6 |
| 20260905174213 | 89 | 82 | 3.0 | 7.0 | 0.00 | 0.00 | 0.00 | 60 | 1018.6 |
| 20260905174116 | 89 | 355 | 3.0 | 7.0 | 0.00 | 0.00 | 0.00 | 58 | 1018.6 |
| 20260905174056 | 89 | 26 | 3.0 | 6.0 | 0.00 | 0.00 | 0.00 | 59 | 1018.6 |
| 20260905174042 | 89 | 5 | 2.0 | 7.0 | 0.00 | 0.00 | 0.00 | 58 | 1018.6 |
| 20260905173812 | 89 | 14 | 3.0 | 9.0 | 0.00 | 0.00 | 0.00 | 60 | 1018.6 |
| 20260905173712 | 89 | 69 | 3.0 | 9.0 | 0.00 | 0.00 | 0.00 | 60 | 1018.6 |
| 20260905173612 | 89 | 339 | 3.0 | 9.0 | 0.00 | 0.00 | 0.00 | 60 | 1018.6 |
| 20260905173513 | 88 | 328 | 3.0 | 9.0 | 0.00 | 0.00 | 0.00 | 59 | 1018.6 |
| 20260905173409 | 88 | 109 | 3.0 | 9.0 | 0.00 | 0.00 | 0.00 | 59 | 1018.6 |
| 20260905173310 | 88 | 87 | 3.0 | 9.0 | 0.00 | 0.00 | 0.00 | 59 | 1018.6 |
| 20260905173208 | 88 | 85 | 3.0 | 9.0 | 0.00 | 0.00 | 0.00 | 60 | 1018.7 |
| 20260905173107 | 88 | 63 | 4.0 | 9.0 | 0.00 | 0.00 | 0.00 | 62 | 1018.7 |
| 20260905173007 | 88 | 22 | 3.0 | 9.0 | 0.00 | 0.00 | 0.00 | 60 | 1018.7 |
| 20260905172903 | 88 | 42 | 3.0 | 9.0 | 0.00 | 0.00 | 0.00 | 61 | 1018.7 |
| 20260905172804 | 88 | 15 | 3.0 | 8.0 | 0.00 | 0.00 | 0.00 | 60 | 1018.7 |
| 20260905172703 | 88 | 38 | 2.0 | 8.0 | 0.00 | 0.00 | 0.00 | 59 | 1018.7 |
| 20260905172604 | 88 | 351 | 2.0 | 8.0 | 0.00 | 0.00 | 0.00 | 61 | 1018.7 |
| 20260905172504 | 88 | 70 | 2.0 | 8.0 | 0.00 | 0.00 | 0.00 | 59 | 1018.7 |
| 20260905172403 | 88 | 17 | 2.0 | 5.0 | 0.00 | 0.00 | 0.00 | 61 | 1018.7 |
| 20260905172305 | 88 | 19 | 2.0 | 5.0 | 0.00 | 0.00 | 0.00 | 61 | 1018.8 |
| 20260905172203 | 88 | 63 | 2.0 | 5.0 | 0.00 | 0.00 | 0.00 | 62 | 1018.7 |
| 20260905172103 | 88 | 355 | 2.0 | 5.0 | 0.00 | 0.00 | 0.00 | 62 | 1018.7 |
| 20260905172001 | 88 | 292 | 2.0 | 8.0 | 0.00 | 0.00 | 0.00 | 62 | 1018.7 |
| 20260905171932 | 88 | 62 | 3.0 | 8.0 | 0.00 | 0.00 | 0.00 | 63 | 1018.8 |
| 20260905171921 | 88 | 62 | 3.0 | 8.0 | 0.00 | 0.00 | 0.00 | 62 | 1018.7 |
| 20260905171752 | 88 | 63 | 4.0 | 10.0 | 0.00 | 0.00 | 0.00 | 63 | 1018.8 |
| 20260905171747 | 88 | 21 | 3.0 | 10.0 | 0.00 | 0.00 | 0.00 | 62 | 1018.8 |
| 20260905171733 | 88 | 342 | 3.0 | 10.0 | 0.00 | 0.00 | 0.00 | 62 | 1018.8 |
| 20260905171548 | 88 | 5 | 3.0 | 10.0 | 0.00 | 0.00 | 0.00 | 63 | 1018.8 |
| 20260905171421 | 88 | 9 | 4.0 | 10.0 | 0.00 | 0.00 | 0.00 | 62 | 1018.8 |
| 20260905171157 | 88 | 9 | 4.0 | 10.0 | 0.00 | 0.00 | 0.00 | 64 | 1018.9 |
| 20260905171057 | 88 | 0 | 4.0 | 10.0 | 0.00 | 0.00 | 0.00 | 63 | 1018.9 |
| 20260905171027 | 87 | 44 | 4.0 | 10.0 | 0.00 | 0.00 | 0.00 | 64 | 1018.9 |
| 20260905171015 | 87 | 39 | 4.0 | 10.0 | 0.00 | 0.00 | 0.00 | 63 | 1018.9 |
| 20260905170752 | 87 | 54 | 4.0 | 10.0 | 0.00 | 0.00 | 0.00 | 64 | 1018.8 |
| 20260905170717 | 87 | 92 | 4.0 | 10.0 | 0.00 | 0.00 | 0.00 | 64 | 1018.8 |
| 20260905170707 | 87 | 60 | 4.0 | 10.0 | 0.00 | 0.00 | 0.00 | 64 | 1018.9 |
| 20260905170444 | 87 | 57 | 4.0 | 10.0 | 0.00 | 0.00 | 0.00 | 65 | 1018.9 |
| 20260905170345 | 87 | 103 | 4.0 | 10.0 | 0.00 | 0.00 | 0.00 | 64 | 1019.0 |
| 20260905170240 | 87 | 51 | 4.0 | 10.0 | 0.00 | 0.00 | 0.00 | 65 | 1019.0 |
| 20260905170141 | 87 | 68 | 4.0 | 10.0 | 0.00 | 0.00 | 0.00 | 65 | 1019.0 |
| 20260905170041 | 87 | 54 | 4.0 | 8.0 | 0.00 | 0.00 | 0.00 | 66 | 1019.0 |
| 20260905170012 | 87 | 308 | 4.0 | 11.0 | 0.00 | 0.00 | 0.00 | 65 | 1019.0 |
| 20260905170003 | 87 | 78 | 4.0 | 11.0 | 0.00 | 0.00 | 0.00 | 64 | 1019.0 |
| 20260905165742 | 87 | 0 | 4.0 | 11.0 | 0.00 | 0.00 | 0.00 | 64 | 1019.1 |
| 20260905165641 | 87 | 29 | 4.0 | 11.0 | 0.00 | 0.00 | 0.00 | 66 | 1019.0 |
| 20260905165610 | 87 | 0 | 5.0 | 11.0 | 0.00 | 0.00 | 0.00 | 65 | 1019.0 |
| 20260905165600 | 87 | 34 | 4.0 | 11.0 | 0.00 | 0.00 | 0.00 | 67 | 1019.0 |
| 20260905165342 | 87 | 38 | 5.0 | 11.0 | 0.00 | 0.00 | 0.00 | 66 | 1019.0 |
| 20260905165241 | 87 | 67 | 5.0 | 11.0 | 0.00 | 0.00 | 0.00 | 65 | 1019.0 |
| 20260905165142 | 87 | 67 | 5.0 | 11.0 | 0.00 | 0.00 | 0.00 | 65 | 1019.0 |
| 20260905165115 | 87 | 77 | 4.0 | 10.0 | 0.00 | 0.00 | 0.00 | 66 | 1019.1 |
| 20260905165111 | 87 | 67 | 4.0 | 10.0 | 0.00 | 0.00 | 0.00 | 65 | 1019.1 |
| 20260905165058 | 87 | 87 | 4.0 | 11.0 | 0.00 | 0.00 | 0.00 | 65 | 1019.1 |
| 20260905165032 | 87 | 77 | 4.0 | 10.0 | 0.00 | 0.00 | 0.00 | 66 | 1019.0 |
| 20260905164638 | 87 | 42 | 3.0 | 9.0 | 0.00 | 0.00 | 0.00 | 65 | 1019.0 |
| 20260905164558 | 86 | 69 | 3.0 | 9.0 | 0.00 | 0.00 | 0.00 | 67 | 1019.0 |
| 20260905164552 | 86 | 5 | 4.0 | 9.0 | 0.00 | 0.00 | 0.00 | 66 | 1019.0 |
| 20260905164543 | 87 | 11 | 3.0 | 9.0 | 0.00 | 0.00 | 0.00 | 64 | 1019.0 |
| 20260905164519 | 87 | 18 | 3.0 | 9.0 | 0.00 | 0.00 | 0.00 | 66 | 1019.1 |
| 20260905164135 | 86 | 57 | 4.0 | 9.0 | 0.00 | 0.00 | 0.00 | 66 | 1019.0 |
| 20260905164037 | 86 | 76 | 3.0 | 9.0 | 0.00 | 0.00 | 0.00 | 65 | 1019.2 |
| 20260905163948 | 86 | 29 | 3.0 | 8.0 | 0.00 | 0.00 | 0.00 | 66 | 1019.1 |
| 20260905163834 | 86 | 14 | 3.0 | 8.0 | 0.00 | 0.00 | 0.00 | 65 | 1019.1 |
| 20260905163737 | 86 | 0 | 3.0 | 8.0 | 0.00 | 0.00 | 0.00 | 66 | 1019.2 |
| 20260905163713 | 86 | 47 | 3.0 | 8.0 | 0.00 | 0.00 | 0.00 | 67 | 1019.2 |
| 20260905163659 | 87 | 78 | 3.0 | 8.0 | 0.00 | 0.00 | 0.00 | 66 | 1019.2 |
| 20260905163434 | 86 | 80 | 3.0 | 8.0 | 0.00 | 0.00 | 0.00 | 65 | 1019.2 |
| 20260905163333 | 86 | 0 | 3.0 | 7.0 | 0.00 | 0.00 | 0.00 | 66 | 1019.2 |
| 20260905163235 | 86 | 0 | 3.0 | 9.0 | 0.00 | 0.00 | 0.00 | 68 | 1019.2 |
| 20260905163133 | 86 | 11 | 3.0 | 9.0 | 0.00 | 0.00 | 0.00 | 66 | 1019.3 |
| 20260905163032 | 86 | 11 | 3.0 | 9.0 | 0.00 | 0.00 | 0.00 | 67 | 1019.3 |
| 20260905162931 | 86 | 15 | 3.0 | 9.0 | 0.00 | 0.00 | 0.00 | 68 | 1019.3 |
| 20260905162904 | 85 | 54 | 3.0 | 9.0 | 0.00 | 0.00 | 0.00 | 67 | 1019.3 |
| 20260905162854 | 85 | 115 | 3.0 | 9.0 | 0.00 | 0.00 | 0.00 | 67 | 1019.3 |
| 20260905162632 | 85 | 84 | 3.0 | 9.0 | 0.00 | 0.00 | 0.00 | 68 | 1019.3 |
| 20260905162529 | 85 | 59 | 3.0 | 9.0 | 0.00 | 0.00 | 0.00 | 68 | 1019.3 |
| 20260905162429 | 85 | 82 | 3.0 | 9.0 | 0.00 | 0.00 | 0.00 | 67 | 1019.3 |
| 20260905162329 | 85 | 68 | 3.0 | 9.0 | 0.00 | 0.00 | 0.00 | 68 | 1019.3 |
| 20260905162229 | 85 | 67 | 3.0 | 8.0 | 0.00 | 0.00 | 0.00 | 67 | 1019.3 |
| 20260905162131 | 85 | 22 | 3.0 | 8.0 | 0.00 | 0.00 | 0.00 | 67 | 1019.3 |
| 20260905162105 | 85 | 65 | 3.0 | 8.0 | 0.00 | 0.00 | 0.00 | 69 | 1019.3 |
| 20260905162055 | 85 | 5 | 3.0 | 8.0 | 0.00 | 0.00 | 0.00 | 68 | 1019.3 |
| 20260905161828 | 85 | 9 | 2.0 | 7.0 | 0.00 | 0.00 | 0.00 | 69 | 1019.3 |
| 20260905161727 | 85 | 70 | 2.0 | 7.0 | 0.00 | 0.00 | 0.00 | 68 | 1019.3 |
| 20260905161628 | 85 | 46 | 2.0 | 7.0 | 0.00 | 0.00 | 0.00 | 69 | 1019.3 |
| 20260905161525 | 85 | 33 | 2.0 | 5.0 | 0.00 | 0.00 | 0.00 | 69 | 1019.3 |
| 20260905161420 | 85 | 77 | 2.0 | 5.0 | 0.00 | 0.00 | 0.00 | 70 | 1019.3 |
| 20260905161319 | 85 | 0 | 3.0 | 5.0 | 0.00 | 0.00 | 0.00 | 69 | 1019.4 |
| 20260905161220 | 85 | 0 | 3.0 | 7.0 | 0.00 | 0.00 | 0.00 | 68 | 1019.4 |
| 20260905161120 | 85 | 0 | 3.0 | 7.0 | 0.00 | 0.00 | 0.00 | 68 | 1019.4 |
| 20260905161022 | 85 | 342 | 3.0 | 7.0 | 0.00 | 0.00 | 0.00 | 68 | 1019.4 |
| 20260905160914 | 85 | 339 | 3.0 | 7.0 | 0.00 | 0.00 | 0.00 | 69 | 1019.4 |
| 20260905160813 | 85 | 70 | 3.0 | 7.0 | 0.00 | 0.00 | 0.00 | 69 | 1019.4 |
| 20260905160752 | 85 | 38 | 3.0 | 7.0 | 0.00 | 0.00 | 0.00 | 69 | 1019.3 |
| 20260905160740 | 85 | 44 | 3.0 | 7.0 | 0.00 | 0.00 | 0.00 | 69 | 1019.4 |
| 20260905160514 | 85 | 93 | 3.0 | 7.0 | 0.00 | 0.00 | 0.00 | 69 | 1019.4 |
| 20260905160403 | 85 | 61 | 3.0 | 8.0 | 0.00 | 0.00 | 0.00 | 70 | 1019.3 |
| 20260905160344 | 85 | 67 | 3.0 | 8.0 | 0.00 | 0.00 | 0.00 | 70 | 1019.3 |
| 20260905160328 | 85 | 44 | 3.0 | 8.0 | 0.00 | 0.00 | 0.00 | 68 | 1019.3 |
| 20260905160104 | 84 | 59 | 3.0 | 8.0 | 0.00 | 0.00 | 0.00 | 70 | 1019.3 |
| 20260905160006 | 84 | 76 | 3.0 | 8.0 | 0.00 | 0.00 | 0.00 | 70 | 1019.3 |
| 20260905155903 | 84 | 58 | 3.0 | 8.0 | 0.00 | 0.00 | 0.00 | 70 | 1019.3 |
| 20260905155805 | 84 | 61 | 3.0 | 8.0 | 0.00 | 0.00 | 0.00 | 68 | 1019.2 |
| 20260905155703 | 84 | 61 | 3.0 | 8.0 | 0.00 | 0.00 | 0.00 | 69 | 1019.4 |
| 20260905155603 | 85 | 36 | 2.0 | 8.0 | 0.00 | 0.00 | 0.00 | 70 | 1019.3 |
| 20260905155503 | 85 | 10 | 2.0 | 8.0 | 0.00 | 0.00 | 0.00 | 69 | 1019.3 |
| 20260905155408 | 85 | 42 | 2.0 | 6.0 | 0.00 | 0.00 | 0.00 | 68 | 1019.3 |
| 20260905155331 | 85 | 67 | 2.0 | 4.0 | 0.00 | 0.00 | 0.00 | 68 | 1019.3 |
| 20260905155322 | 85 | 69 | 2.0 | 4.0 | 0.00 | 0.00 | 0.00 | 69 | 1019.3 |
| 20260905155103 | 85 | 63 | 2.0 | 4.0 | 0.00 | 0.00 | 0.00 | 67 | 1019.3 |
| 20260905155004 | 85 | 9 | 2.0 | 4.0 | 0.00 | 0.00 | 0.00 | 69 | 1019.3 |
| 20260905154906 | 85 | 39 | 2.0 | 5.0 | 0.00 | 0.00 | 0.00 | 69 | 1019.3 |
| 20260905154803 | 85 | 39 | 2.0 | 5.0 | 0.00 | 0.00 | 0.00 | 68 | 1019.4 |
| 20260905154655 | 85 | 17 | 2.0 | 5.0 | 0.00 | 0.00 | 0.00 | 68 | 1019.4 |
| 20260905154556 | 85 | 51 | 2.0 | 5.0 | 0.00 | 0.00 | 0.00 | 68 | 1019.4 |
| 20260905154457 | 85 | 51 | 2.0 | 5.0 | 0.00 | 0.00 | 0.00 | 69 | 1019.3 |
| 20260905154356 | 85 | 13 | 2.0 | 5.0 | 0.00 | 0.00 | 0.00 | 69 | 1019.3 |
| 20260905154300 | 85 | 45 | 1.0 | 5.0 | 0.00 | 0.00 | 0.00 | 67 | 1019.3 |
| 20260905154155 | 85 | 74 | 1.0 | 5.0 | 0.00 | 0.00 | 0.00 | 68 | 1019.2 |
| 20260905154055 | 85 | 19 | 1.0 | 5.0 | 0.00 | 0.00 | 0.00 | 68 | 1019.3 |
| 20260905153957 | 85 | 34 | 1.0 | 5.0 | 0.00 | 0.00 | 0.00 | 69 | 1019.3 |
| 20260905153853 | 85 | 25 | 1.0 | 4.0 | 0.00 | 0.00 | 0.00 | 68 | 1019.3 |
| 20260905153751 | 85 | 68 | 1.0 | 4.0 | 0.00 | 0.00 | 0.00 | 67 | 1019.2 |
| 20260905153644 | 85 | 40 | 1.0 | 4.0 | 0.00 | 0.00 | 0.00 | 69 | 1019.3 |
| 20260905153545 | 85 | 49 | 2.0 | 5.0 | 0.00 | 0.00 | 0.00 | 68 | 1019.3 |
| 20260905153443 | 85 | 49 | 2.0 | 5.0 | 0.00 | 0.00 | 0.00 | 67 | 1019.3 |
| 20260905153418 | 85 | 49 | 2.0 | 5.0 | 0.00 | 0.00 | 0.00 | 68 | 1019.3 |
| 20260905153408 | 85 | 49 | 2.0 | 5.0 | 0.00 | 0.00 | 0.00 | 68 | 1019.3 |
| 20260905153135 | 85 | 73 | 2.0 | 5.0 | 0.00 | 0.00 | 0.00 | 69 | 1019.2 |
| 20260905153035 | 85 | 68 | 2.0 | 5.0 | 0.00 | 0.00 | 0.00 | 68 | 1019.3 |
| 20260905152940 | 85 | 325 | 2.0 | 6.0 | 0.00 | 0.00 | 0.00 | 67 | 1019.3 |
| 20260905152921 | 85 | 12 | 2.0 | 6.0 | 0.00 | 0.00 | 0.00 | 67 | 1019.3 |
| 20260905152908 | 85 | 5 | 2.0 | 6.0 | 0.00 | 0.00 | 0.00 | 67 | 1019.3 |
| 20260905152635 | 85 | 59 | 2.0 | 6.0 | 0.00 | 0.00 | 0.00 | 69 | 1019.3 |
| 20260905152536 | 85 | 46 | 2.0 | 6.0 | 0.00 | 0.00 | 0.00 | 68 | 1019.3 |
| 20260905152437 | 85 | 46 | 3.0 | 6.0 | 0.00 | 0.00 | 0.00 | 68 | 1019.4 |
| 20260905152337 | 85 | 44 | 3.0 | 6.0 | 0.00 | 0.00 | 0.00 | 66 | 1019.3 |
| 20260905152234 | 85 | 56 | 3.0 | 8.0 | 0.00 | 0.00 | 0.00 | 67 | 1019.4 |
| 20260905152143 | 85 | 38 | 3.0 | 8.0 | 0.00 | 0.00 | 0.00 | 67 | 1019.3 |
| 20260905152039 | 85 | 25 | 3.0 | 8.0 | 0.00 | 0.00 | 0.00 | 67 | 1019.3 |
| 20260905151936 | 85 | 16 | 3.0 | 8.0 | 0.00 | 0.00 | 0.00 | 66 | 1019.4 |
| 20260905151833 | 85 | 67 | 2.0 | 8.0 | 0.00 | 0.00 | 0.00 | 67 | 1019.3 |
| 20260905151738 | 85 | 55 | 3.0 | 8.0 | 0.00 | 0.00 | 0.00 | 68 | 1019.4 |
| 20260905151710 | 85 | 11 | 2.0 | 8.0 | 0.00 | 0.00 | 0.00 | 68 | 1019.4 |
| 20260905151658 | 85 | 112 | 3.0 | 8.0 | 0.00 | 0.00 | 0.00 | 67 | 1019.3 |
| 20260905151429 | 85 | 64 | 2.0 | 8.0 | 0.00 | 0.00 | 0.00 | 68 | 1019.4 |
| 20260905151335 | 84 | 47 | 2.0 | 8.0 | 0.00 | 0.00 | 0.00 | 68 | 1019.3 |
| 20260905151226 | 84 | 24 | 2.0 | 5.0 | 0.00 | 0.00 | 0.00 | 67 | 1019.4 |
| 20260905151150 | 84 | 34 | 1.0 | 5.0 | 0.00 | 0.00 | 0.00 | 67 | 1019.4 |
| 20260905151132 | 84 | 10 | 2.0 | 5.0 | 0.00 | 0.00 | 0.00 | 67 | 1019.4 |
| 20260905151118 | 84 | 34 | 1.0 | 5.0 | 0.00 | 0.00 | 0.00 | 68 | 1019.4 |
| 20260905151100 | 84 | 11 | 1.0 | 5.0 | 0.00 | 0.00 | 0.00 | 67 | 1019.4 |
| 20260905150751 | 84 | 74 | 1.0 | 6.0 | 0.00 | 0.00 | 0.00 | 70 | 1019.4 |
| 20260905150741 | 84 | 20 | 1.0 | 6.0 | 0.00 | 0.00 | 0.00 | 69 | 1019.3 |
| 20260905150521 | 84 | 73 | 1.0 | 6.0 | 0.00 | 0.00 | 0.00 | 71 | 1019.3 |
| 20260905150416 | 84 | 73 | 2.0 | 6.0 | 0.00 | 0.00 | 0.00 | 70 | 1019.3 |
| 20260905150317 | 84 | 75 | 2.0 | 6.0 | 0.00 | 0.00 | 0.00 | 70 | 1019.3 |
| 20260905150217 | 83 | 76 | 2.0 | 6.0 | 0.00 | 0.00 | 0.00 | 70 | 1019.3 |
| 20260905150115 | 83 | 76 | 2.0 | 6.0 | 0.00 | 0.00 | 0.00 | 71 | 1019.3 |
| 20260905150017 | 83 | 76 | 3.0 | 6.0 | 0.00 | 0.00 | 0.00 | 71 | 1019.2 |
| 20260905145957 | 83 | 86 | 3.0 | 6.0 | 0.00 | 0.00 | 0.00 | 72 | 1019.2 |
| 20260905145943 | 83 | 76 | 3.0 | 6.0 | 0.00 | 0.00 | 0.00 | 71 | 1019.3 |
| 20260905145712 | 83 | 9 | 3.0 | 6.0 | 0.00 | 0.00 | 0.00 | 71 | 1019.3 |
| 20260905145611 | 83 | 66 | 3.0 | 6.0 | 0.00 | 0.00 | 0.00 | 71 | 1019.3 |
| 20260905145511 | 83 | 98 | 3.0 | 6.0 | 0.00 | 0.00 | 0.00 | 70 | 1019.3 |
| 20260905145410 | 83 | 65 | 3.0 | 7.0 | 0.00 | 0.00 | 0.00 | 68 | 1019.3 |
| 20260905145312 | 83 | 54 | 3.0 | 7.0 | 0.00 | 0.00 | 0.00 | 69 | 1019.3 |
| 20260905145212 | 83 | 87 | 3.0 | 7.0 | 0.00 | 0.00 | 0.00 | 71 | 1019.3 |
| 20260905145113 | 83 | 89 | 3.0 | 7.0 | 0.00 | 0.00 | 0.00 | 72 | 1019.3 |
| 20260905145032 | 83 | 76 | 2.0 | 7.0 | 0.00 | 0.00 | 0.00 | 72 | 1019.3 |
| 20260905145019 | 83 | 69 | 2.0 | 7.0 | 0.00 | 0.00 | 0.00 | 72 | 1019.3 |
| 20260905144957 | 83 | 52 | 2.0 | 7.0 | 0.00 | 0.00 | 0.00 | 72 | 1019.3 |
| 20260905144834 | 83 | 67 | 2.0 | 7.0 | 0.00 | 0.00 | 0.00 | 71 | 1019.3 |
| 20260905144610 | 82 | 70 | 2.0 | 7.0 | 0.00 | 0.00 | 0.00 | 72 | 1019.3 |
| 20260905144541 | 82 | 76 | 3.0 | 6.0 | 0.00 | 0.00 | 0.00 | 72 | 1019.2 |
| 20260905144529 | 82 | 84 | 2.0 | 7.0 | 0.00 | 0.00 | 0.00 | 72 | 1019.3 |
| 20260905144342 | 82 | 63 | 3.0 | 6.0 | 0.00 | 0.00 | 0.00 | 73 | 1019.2 |
| 20260905144331 | 82 | 106 | 3.0 | 6.0 | 0.00 | 0.00 | 0.00 | 72 | 1019.2 |
| 20260905144109 | 82 | 62 | 3.0 | 6.0 | 0.00 | 0.00 | 0.00 | 73 | 1019.2 |
| 20260905144035 | 82 | 40 | 3.0 | 6.0 | 0.00 | 0.00 | 0.00 | 73 | 1019.2 |
| 20260905144026 | 82 | 64 | 3.0 | 6.0 | 0.00 | 0.00 | 0.00 | 73 | 1019.3 |
| 20260905143806 | 82 | 36 | 2.0 | 6.0 | 0.00 | 0.00 | 0.00 | 73 | 1019.2 |
| 20260905143705 | 82 | 52 | 2.0 | 6.0 | 0.00 | 0.00 | 0.00 | 73 | 1019.2 |
| 20260905143605 | 82 | 49 | 2.0 | 6.0 | 0.00 | 0.00 | 0.00 | 72 | 1019.2 |
| 20260905143529 | 82 | 58 | 2.0 | 4.0 | 0.00 | 0.00 | 0.00 | 73 | 1019.2 |
| 20260905143525 | 82 | 58 | 2.0 | 4.0 | 0.00 | 0.00 | 0.00 | 72 | 1019.2 |
| 20260905143511 | 82 | 55 | 2.0 | 6.0 | 0.00 | 0.00 | 0.00 | 73 | 1019.3 |
| 20260905143451 | 82 | 55 | 2.0 | 5.0 | 0.00 | 0.00 | 0.00 | 74 | 1019.3 |
| 20260905143141 | 82 | 73 | 2.0 | 4.0 | 0.00 | 0.00 | 0.00 | 73 | 1019.2 |
| 20260905143129 | 82 | 73 | 2.0 | 4.0 | 0.00 | 0.00 | 0.00 | 73 | 1019.2 |
| 20260905142902 | 82 | 58 | 2.0 | 3.0 | 0.00 | 0.00 | 0.00 | 74 | 1019.2 |
| 20260905142803 | 82 | 58 | 2.0 | 3.0 | 0.00 | 0.00 | 0.00 | 73 | 1019.2 |
| 20260905142659 | 82 | 58 | 2.0 | 5.0 | 0.00 | 0.00 | 0.00 | 73 | 1019.1 |
| 20260905142628 | 82 | 58 | 2.0 | 6.0 | 0.00 | 0.00 | 0.00 | 74 | 1019.2 |
| 20260905142617 | 82 | 58 | 2.0 | 5.0 | 0.00 | 0.00 | 0.00 | 73 | 1019.1 |
| 20260905142352 | 82 | 57 | 2.0 | 6.0 | 0.00 | 0.00 | 0.00 | 74 | 1019.2 |
| 20260905142254 | 82 | 59 | 2.0 | 6.0 | 0.00 | 0.00 | 0.00 | 73 | 1019.1 |
| 20260905142154 | 82 | 69 | 2.0 | 6.0 | 0.00 | 0.00 | 0.00 | 73 | 1019.2 |
| 20260905142053 | 82 | 69 | 2.0 | 6.0 | 0.00 | 0.00 | 0.00 | 73 | 1019.2 |
| 20260905141953 | 82 | 69 | 2.0 | 6.0 | 0.00 | 0.00 | 0.00 | 72 | 1019.2 |
| 20260905141853 | 82 | 71 | 2.0 | 6.0 | 0.00 | 0.00 | 0.00 | 73 | 1019.2 |
| 20260905141753 | 82 | 74 | 2.0 | 6.0 | 0.00 | 0.00 | 0.00 | 73 | 1019.1 |
| 20260905141654 | 82 | 58 | 2.0 | 6.0 | 0.00 | 0.00 | 0.00 | 73 | 1019.2 |
| 20260905141624 | 82 | 64 | 2.0 | 5.0 | 0.00 | 0.00 | 0.00 | 73 | 1019.1 |
| 20260905141617 | 82 | 58 | 2.0 | 6.0 | 0.00 | 0.00 | 0.00 | 72 | 1019.2 |
| 20260905141353 | 82 | 44 | 2.0 | 5.0 | 0.00 | 0.00 | 0.00 | 74 | 1019.1 |
| 20260905141254 | 82 | 59 | 2.0 | 5.0 | 0.00 | 0.00 | 0.00 | 74 | 1019.1 |
| 20260905141151 | 82 | 59 | 2.0 | 5.0 | 0.00 | 0.00 | 0.00 | 73 | 1019.1 |
| 20260905141051 | 82 | 59 | 2.0 | 5.0 | 0.00 | 0.00 | 0.00 | 73 | 1019.1 |
| 20260905140948 | 82 | 59 | 2.0 | 5.0 | 0.00 | 0.00 | 0.00 | 73 | 1019.1 |
| 20260905140849 | 82 | 59 | 2.0 | 5.0 | 0.00 | 0.00 | 0.00 | 73 | 1019.1 |
| 20260905140743 | 82 | 56 | 2.0 | 5.0 | 0.00 | 0.00 | 0.00 | 74 | 1019.2 |
| 20260905140641 | 82 | 73 | 2.0 | 5.0 | 0.00 | 0.00 | 0.00 | 72 | 1019.1 |
| 20260905140546 | 82 | 63 | 2.0 | 5.0 | 0.00 | 0.00 | 0.00 | 73 | 1019.1 |
| 20260905140442 | 82 | 46 | 2.0 | 5.0 | 0.00 | 0.00 | 0.00 | 73 | 1019.2 |
| 20260905140342 | 82 | 46 | 2.0 | 5.0 | 0.00 | 0.00 | 0.00 | 74 | 1019.2 |
| 20260905140243 | 82 | 30 | 2.0 | 5.0 | 0.00 | 0.00 | 0.00 | 74 | 1019.1 |
| 20260905140140 | 82 | 55 | 2.0 | 5.0 | 0.00 | 0.00 | 0.00 | 74 | 1019.1 |
| 20260905140107 | 81 | 47 | 1.0 | 3.0 | 0.00 | 0.00 | 0.00 | 73 | 1019.0 |
| 20260905140058 | 81 | 57 | 1.0 | 5.0 | 0.00 | 0.00 | 0.00 | 73 | 1019.1 |
| 20260905135927 | 81 | 46 | 2.0 | 5.0 | 0.00 | 0.00 | 0.00 | 74 | 1019.0 |
| 20260905135921 | 81 | 49 | 2.0 | 5.0 | 0.00 | 0.00 | 0.00 | 73 | 1019.0 |
| 20260905135916 | 81 | 46 | 2.0 | 5.0 | 0.00 | 0.00 | 0.00 | 74 | 1019.1 |
| 20260905135910 | 81 | 46 | 2.0 | 5.0 | 0.00 | 0.00 | 0.00 | 74 | 1019.0 |
| 20260905135856 | 81 | 46 | 2.0 | 3.0 | 0.00 | 0.00 | 0.00 | 73 | 1019.1 |
| 20260905135838 | 81 | 49 | 2.0 | 5.0 | 0.00 | 0.00 | 0.00 | 73 | 1019.0 |
| 20260905135557 | 81 | 28 | 2.0 | 5.0 | 0.00 | 0.00 | 0.00 | 74 | 1019.0 |
| 20260905135544 | 81 | 38 | 2.0 | 5.0 | 0.00 | 0.00 | 0.00 | 74 | 1019.1 |
| 20260905135518 | 81 | 46 | 2.0 | 5.0 | 0.00 | 0.00 | 0.00 | 74 | 1019.0 |
| 20260905135213 | 81 | 46 | 2.0 | 5.0 | 0.00 | 0.00 | 0.00 | 74 | 1019.0 |
| 20260905134828 | 81 | 33 | 2.0 | 5.0 | 0.00 | 0.00 | 0.00 | 75 | 1019.0 |
| 20260905134729 | 81 | 66 | 2.0 | 5.0 | 0.00 | 0.00 | 0.00 | 74 | 1019.0 |
| 20260905134634 | 81 | 57 | 2.0 | 5.0 | 0.00 | 0.00 | 0.00 | 74 | 1019.1 |
| 20260905134522 | 81 | 57 | 2.0 | 5.0 | 0.00 | 0.00 | 0.00 | 74 | 1019.1 |
| 20260905134422 | 81 | 57 | 2.0 | 5.0 | 0.00 | 0.00 | 0.00 | 74 | 1019.1 |
| 20260905134326 | 81 | 58 | 2.0 | 5.0 | 0.00 | 0.00 | 0.00 | 74 | 1019.1 |
| 20260905134221 | 81 | 62 | 2.0 | 5.0 | 0.00 | 0.00 | 0.00 | 74 | 1019.1 |
| 20260905134141 | 81 | 64 | 2.0 | 5.0 | 0.00 | 0.00 | 0.00 | 73 | 1019.2 |
| 20260905134036 | 81 | 65 | 2.0 | 5.0 | 0.00 | 0.00 | 0.00 | 73 | 1019.2 |
| 20260905134009 | 81 | 56 | 2.0 | 5.0 | 0.00 | 0.00 | 0.00 | 74 | 1019.3 |
| 20260905133957 | 81 | 56 | 2.0 | 5.0 | 0.00 | 0.00 | 0.00 | 74 | 1019.2 |
| 20260905133720 | 81 | 56 | 2.0 | 5.0 | 0.00 | 0.00 | 0.00 | 73 | 1019.2 |
| 20260905133621 | 81 | 34 | 2.0 | 5.0 | 0.00 | 0.00 | 0.00 | 73 | 1019.2 |
| 20260905133550 | 81 | 9 | 2.0 | 5.0 | 0.00 | 0.00 | 0.00 | 74 | 1019.2 |
| 20260905133541 | 81 | 9 | 2.0 | 5.0 | 0.00 | 0.00 | 0.00 | 73 | 1019.2 |
| 20260905133351 | 80 | 59 | 2.0 | 5.0 | 0.00 | 0.00 | 0.00 | 73 | 1019.3 |
| 20260905133346 | 81 | 9 | 2.0 | 5.0 | 0.00 | 0.00 | 0.00 | 74 | 1019.3 |
| 20260905133156 | 80 | 48 | 2.0 | 5.0 | 0.00 | 0.00 | 0.00 | 73 | 1019.3 |
| 20260905133030 | 80 | 36 | 2.0 | 5.0 | 0.00 | 0.00 | 0.00 | 73 | 1019.3 |
| 20260905133018 | 80 | 34 | 2.0 | 5.0 | 0.00 | 0.00 | 0.00 | 73 | 1019.4 |
| 20260905133005 | 80 | 36 | 2.0 | 5.0 | 0.00 | 0.00 | 0.00 | 72 | 1019.4 |
| 20260905132740 | 80 | 53 | 1.0 | 5.0 | 0.00 | 0.00 | 0.00 | 74 | 1019.4 |
| 20260905132732 | 80 | 53 | 2.0 | 5.0 | 0.00 | 0.00 | 0.00 | 74 | 1019.4 |
| 20260905132549 | 80 | 43 | 1.0 | 3.0 | 0.00 | 0.00 | 0.00 | 74 | 1019.5 |
| 20260905132535 | 80 | 26 | 1.0 | 3.0 | 0.00 | 0.00 | 0.00 | 74 | 1019.4 |
| 20260905132310 | 80 | 43 | 1.0 | 3.0 | 0.00 | 0.00 | 0.00 | 74 | 1019.4 |
| 20260905132210 | 80 | 60 | 1.0 | 3.0 | 0.00 | 0.00 | 0.00 | 74 | 1019.4 |
| 20260905132108 | 80 | 60 | 2.0 | 3.0 | 0.00 | 0.00 | 0.00 | 74 | 1019.4 |
| 20260905132009 | 80 | 60 | 2.0 | 3.0 | 0.00 | 0.00 | 0.00 | 74 | 1019.4 |
| 20260905131919 | 80 | 60 | 2.0 | 3.0 | 0.00 | 0.00 | 0.00 | 74 | 1019.4 |
| 20260905131847 | 80 | 60 | 2.0 | 3.0 | 0.00 | 0.00 | 0.00 | 73 | 1019.4 |
| 20260905131736 | 80 | 60 | 2.0 | 4.0 | 0.00 | 0.00 | 0.00 | 73 | 1019.5 |
| 20260905131726 | 80 | 60 | 2.0 | 3.0 | 0.00 | 0.00 | 0.00 | 73 | 1019.5 |
| 20260905131508 | 80 | 60 | 2.0 | 8.0 | 0.00 | 0.00 | 0.00 | 73 | 1019.5 |
| 20260905131407 | 80 | 60 | 2.0 | 8.0 | 0.00 | 0.00 | 0.00 | 73 | 1019.5 |
| 20260905131308 | 80 | 58 | 2.0 | 8.0 | 0.00 | 0.00 | 0.00 | 74 | 1019.5 |
| 20260905131207 | 80 | 23 | 2.0 | 8.0 | 0.00 | 0.00 | 0.00 | 74 | 1019.5 |
| 20260905131106 | 80 | 23 | 2.0 | 8.0 | 0.00 | 0.00 | 0.00 | 73 | 1019.5 |
| 20260905131008 | 80 | 5 | 2.0 | 8.0 | 0.00 | 0.00 | 0.00 | 73 | 1019.6 |
| 20260905130910 | 80 | 60 | 2.0 | 8.0 | 0.00 | 0.00 | 0.00 | 73 | 1019.5 |
| 20260905130811 | 80 | 60 | 2.0 | 8.0 | 0.00 | 0.00 | 0.00 | 74 | 1019.5 |
| 20260905130706 | 80 | 61 | 2.0 | 8.0 | 0.00 | 0.00 | 0.00 | 73 | 1019.5 |
| 20260905130606 | 80 | 19 | 2.0 | 8.0 | 0.00 | 0.00 | 0.00 | 74 | 1019.5 |
| 20260905130508 | 80 | 44 | 2.0 | 4.0 | 0.00 | 0.00 | 0.00 | 74 | 1019.5 |
| 20260905130407 | 80 | 44 | 2.0 | 4.0 | 0.00 | 0.00 | 0.00 | 74 | 1019.5 |
| 20260905130357 | 80 | 46 | 2.0 | 5.0 | 0.00 | 0.00 | 0.00 | 74 | 1019.5 |
| 20260905130352 | 80 | 42 | 2.0 | 7.0 | 0.00 | 0.00 | 0.00 | 74 | 1019.5 |
| 20260905130346 | 80 | 51 | 2.0 | 7.0 | 0.00 | 0.00 | 0.00 | 74 | 1019.4 |
| 20260905130335 | 80 | 42 | 2.0 | 4.0 | 0.00 | 0.00 | 0.00 | 74 | 1019.5 |
| 20260905130151 | 80 | 51 | 2.0 | 7.0 | 0.00 | 0.00 | 0.00 | 74 | 1019.5 |
| 20260905125808 | 80 | 50 | 2.0 | 7.0 | 0.00 | 0.00 | 0.00 | 74 | 1019.5 |
| 20260905125731 | 80 | 23 | 2.0 | 7.0 | 0.00 | 0.00 | 0.00 | 73 | 1019.5 |
| 20260905125726 | 80 | 0 | 2.0 | 7.0 | 0.00 | 0.00 | 0.00 | 73 | 1019.5 |
| 20260905125712 | 80 | 43 | 2.0 | 7.0 | 0.00 | 0.00 | 0.00 | 73 | 1019.5 |
| 20260905125651 | 80 | 42 | 2.0 | 7.0 | 0.00 | 0.00 | 0.00 | 73 | 1019.5 |
| 20260905125306 | 80 | 61 | 2.0 | 7.0 | 0.00 | 0.00 | 0.00 | 73 | 1019.5 |
| 20260905125234 | 80 | 24 | 2.0 | 5.0 | 0.00 | 0.00 | 0.00 | 73 | 1019.5 |
| 20260905125224 | 80 | 11 | 2.0 | 7.0 | 0.00 | 0.00 | 0.00 | 73 | 1019.5 |
| 20260905125002 | 80 | 22 | 2.0 | 5.0 | 0.00 | 0.00 | 0.00 | 73 | 1019.5 |
| 20260905124904 | 80 | 15 | 2.0 | 5.0 | 0.00 | 0.00 | 0.00 | 73 | 1019.5 |
| 20260905124802 | 80 | 12 | 2.0 | 5.0 | 0.00 | 0.00 | 0.00 | 73 | 1019.5 |
| 20260905124704 | 80 | 12 | 2.0 | 5.0 | 0.00 | 0.00 | 0.00 | 72 | 1019.5 |
| 20260905124603 | 80 | 0 | 2.0 | 5.0 | 0.00 | 0.00 | 0.00 | 73 | 1019.4 |
| 20260905124504 | 80 | 36 | 2.0 | 5.0 | 0.00 | 0.00 | 0.00 | 73 | 1019.5 |
| 20260905124403 | 80 | 23 | 2.0 | 5.0 | 0.00 | 0.00 | 0.00 | 73 | 1019.5 |
| 20260905124302 | 80 | 15 | 2.0 | 5.0 | 0.00 | 0.00 | 0.00 | 73 | 1019.5 |
| 20260905124255 | 79 | 47 | 2.0 | 4.0 | 0.00 | 0.00 | 0.00 | 73 | 1019.4 |
| 20260905124251 | 79 | 57 | 2.0 | 4.0 | 0.00 | 0.00 | 0.00 | 73 | 1019.5 |
| 20260905124245 | 79 | 13 | 2.0 | 4.0 | 0.00 | 0.00 | 0.00 | 73 | 1019.4 |
| 20260905124228 | 80 | 48 | 2.0 | 5.0 | 0.00 | 0.00 | 0.00 | 73 | 1019.5 |
| 20260905124207 | 79 | 48 | 2.0 | 4.0 | 0.00 | 0.00 | 0.00 | 73 | 1019.4 |
| 20260905123735 | 79 | 24 | 2.0 | 5.0 | 0.00 | 0.00 | 0.00 | 73 | 1019.4 |
| 20260905123726 | 79 | 24 | 2.0 | 5.0 | 0.00 | 0.00 | 0.00 | 73 | 1019.4 |
| 20260905123504 | 79 | 35 | 2.0 | 5.0 | 0.00 | 0.00 | 0.00 | 73 | 1019.4 |
| 20260905123402 | 79 | 33 | 2.0 | 5.0 | 0.00 | 0.00 | 0.00 | 73 | 1019.4 |
| 20260905123304 | 79 | 54 | 2.0 | 5.0 | 0.00 | 0.00 | 0.00 | 73 | 1019.3 |
| 20260905123204 | 79 | 54 | 2.0 | 5.0 | 0.00 | 0.00 | 0.00 | 73 | 1019.5 |
| 20260905123104 | 79 | 17 | 2.0 | 5.0 | 0.00 | 0.00 | 0.00 | 73 | 1019.4 |
| 20260905123008 | 79 | 16 | 2.0 | 5.0 | 0.00 | 0.00 | 0.00 | 73 | 1019.4 |
| 20260905122902 | 79 | 5 | 2.0 | 5.0 | 0.00 | 0.00 | 0.00 | 73 | 1019.4 |
| 20260905122803 | 79 | 21 | 2.0 | 5.0 | 0.00 | 0.00 | 0.00 | 73 | 1019.3 |
| 20260905122709 | 79 | 5 | 2.0 | 5.0 | 0.00 | 0.00 | 0.00 | 73 | 1019.4 |
| 20260905122637 | 79 | 11 | 2.0 | 5.0 | 0.00 | 0.00 | 0.00 | 73 | 1019.4 |
| 20260905122626 | 79 | 12 | 2.0 | 5.0 | 0.00 | 0.00 | 0.00 | 73 | 1019.3 |
| 20260905122404 | 79 | 32 | 2.0 | 5.0 | 0.00 | 0.00 | 0.00 | 73 | 1019.3 |
| 20260905122306 | 79 | 5 | 2.0 | 5.0 | 0.00 | 0.00 | 0.00 | 73 | 1019.2 |
| 20260905122202 | 79 | 5 | 2.0 | 5.0 | 0.00 | 0.00 | 0.00 | 73 | 1019.2 |
| 20260905122103 | 79 | 5 | 2.0 | 5.0 | 0.00 | 0.00 | 0.00 | 73 | 1019.3 |
| 20260905122003 | 79 | 5 | 2.0 | 5.0 | 0.00 | 0.00 | 0.00 | 73 | 1019.3 |
| 20260905121903 | 79 | 19 | 2.0 | 4.0 | 0.00 | 0.00 | 0.00 | 73 | 1019.2 |
| 20260905121803 | 79 | 19 | 2.0 | 4.0 | 0.00 | 0.00 | 0.00 | 73 | 1019.2 |
| 20260905121702 | 79 | 19 | 2.0 | 4.0 | 0.00 | 0.00 | 0.00 | 73 | 1019.2 |
| 20260905121603 | 79 | 18 | 2.0 | 4.0 | 0.00 | 0.00 | 0.00 | 73 | 1019.2 |
| 20260905121502 | 79 | 19 | 2.0 | 4.0 | 0.00 | 0.00 | 0.00 | 73 | 1019.2 |
| 20260905121404 | 79 | 19 | 2.0 | 4.0 | 0.00 | 0.00 | 0.00 | 73 | 1019.3 |
| 20260905121302 | 79 | 19 | 2.0 | 4.0 | 0.00 | 0.00 | 0.00 | 72 | 1019.2 |
| 20260905121204 | 79 | 19 | 2.0 | 4.0 | 0.00 | 0.00 | 0.00 | 73 | 1019.2 |
| 20260905121102 | 79 | 13 | 2.0 | 4.0 | 0.00 | 0.00 | 0.00 | 73 | 1019.2 |
| 20260905121002 | 79 | 13 | 2.0 | 4.0 | 0.00 | 0.00 | 0.00 | 73 | 1019.3 |
| 20260905120921 | 79 | 11 | 2.0 | 4.0 | 0.00 | 0.00 | 0.00 | 73 | 1019.2 |
| 20260905120916 | 79 | 15 | 2.0 | 4.0 | 0.00 | 0.00 | 0.00 | 73 | 1019.2 |
| 20260905120906 | 79 | 10 | 2.0 | 4.0 | 0.00 | 0.00 | 0.00 | 73 | 1019.2 |
| 20260905120844 | 79 | 9 | 2.0 | 4.0 | 0.00 | 0.00 | 0.00 | 73 | 1019.2 |
| 20260905120502 | 79 | 28 | 2.0 | 4.0 | 0.00 | 0.00 | 0.00 | 73 | 1019.1 |
| 20260905120427 | 79 | 28 | 2.0 | 4.0 | 0.00 | 0.00 | 0.00 | 73 | 1019.1 |
| 20260905120420 | 79 | 28 | 2.0 | 4.0 | 0.00 | 0.00 | 0.00 | 73 | 1019.1 |
| 20260905120203 | 79 | 17 | 2.0 | 4.0 | 0.00 | 0.00 | 0.00 | 73 | 1019.1 |
| 20260905120056 | 79 | 18 | 2.0 | 4.0 | 0.00 | 0.00 | 0.00 | 73 | 1019.1 |
| 20260905115956 | 79 | 18 | 2.0 | 4.0 | 0.00 | 0.00 | 0.00 | 73 | 1019.0 |
| 20260905115933 | 79 | 18 | 2.0 | 4.0 | 0.00 | 0.00 | 0.00 | 72 | 1019.0 |
| 20260905115919 | 79 | 18 | 2.0 | 4.0 | 0.00 | 0.00 | 0.00 | 73 | 1019.1 |
| 20260905115653 | 79 | 18 | 2.0 | 4.0 | 0.00 | 0.00 | 0.00 | 73 | 1019.0 |
| 20260905115548 | 79 | 17 | 2.0 | 4.0 | 0.00 | 0.00 | 0.00 | 73 | 1019.0 |
| 20260905115448 | 79 | 17 | 2.0 | 4.0 | 0.00 | 0.00 | 0.00 | 73 | 1019.0 |
| 20260905115348 | 79 | 17 | 2.0 | 4.0 | 0.00 | 0.00 | 0.00 | 73 | 1019.0 |
| 20260905115313 | 79 | 17 | 2.0 | 4.0 | 0.00 | 0.00 | 0.00 | 73 | 1019.0 |
| 20260905115306 | 79 | 17 | 2.0 | 4.0 | 0.00 | 0.00 | 0.00 | 73 | 1019.0 |
| 20260905115041 | 79 | 17 | 2.0 | 4.0 | 0.00 | 0.00 | 0.00 | 73 | 1019.1 |
| 20260905115014 | 79 | 17 | 2.0 | 4.0 | 0.00 | 0.00 | 0.00 | 73 | 1019.0 |
| 20260905115003 | 79 | 17 | 2.0 | 4.0 | 0.00 | 0.00 | 0.00 | 73 | 1019.0 |
| 20260905114741 | 79 | 17 | 2.0 | 4.0 | 0.00 | 0.00 | 0.00 | 73 | 1019.0 |
| 20260905114710 | 79 | 19 | 2.0 | 4.0 | 0.00 | 0.00 | 0.00 | 73 | 1019.0 |
| 20260905114659 | 79 | 19 | 2.0 | 4.0 | 0.00 | 0.00 | 0.00 | 73 | 1019.0 |
| 20260905114436 | 79 | 19 | 2.0 | 4.0 | 0.00 | 0.00 | 0.00 | 73 | 1019.0 |
| 20260905114335 | 78 | 19 | 2.0 | 4.0 | 0.00 | 0.00 | 0.00 | 73 | 1019.0 |
| 20260905114227 | 78 | 19 | 2.0 | 4.0 | 0.00 | 0.00 | 0.00 | 73 | 1018.9 |
| 20260905114126 | 78 | 15 | 2.0 | 4.0 | 0.00 | 0.00 | 0.00 | 73 | 1018.9 |
| 20260905114027 | 78 | 15 | 2.0 | 4.0 | 0.00 | 0.00 | 0.00 | 73 | 1018.9 |
| 20260905113928 | 78 | 13 | 2.0 | 4.0 | 0.00 | 0.00 | 0.00 | 73 | 1018.9 |
| 20260905113853 | 78 | 13 | 2.0 | 4.0 | 0.00 | 0.00 | 0.00 | 73 | 1018.8 |
| 20260905113844 | 78 | 13 | 2.0 | 4.0 | 0.00 | 0.00 | 0.00 | 73 | 1018.9 |
| 20260905113622 | 78 | 13 | 2.0 | 4.0 | 0.00 | 0.00 | 0.00 | 72 | 1018.8 |
| 20260905113520 | 78 | 13 | 2.0 | 4.0 | 0.00 | 0.00 | 0.00 | 72 | 1018.8 |
| 20260905113420 | 78 | 13 | 2.0 | 4.0 | 0.00 | 0.00 | 0.00 | 72 | 1018.8 |
| 20260905113319 | 78 | 13 | 1.0 | 4.0 | 0.00 | 0.00 | 0.00 | 72 | 1018.8 |
| 20260905113215 | 78 | 13 | 1.0 | 3.0 | 0.00 | 0.00 | 0.00 | 72 | 1018.8 |
| 20260905113145 | 78 | 13 | 1.0 | 3.0 | 0.00 | 0.00 | 0.00 | 72 | 1018.7 |
| 20260905113136 | 78 | 13 | 1.0 | 3.0 | 0.00 | 0.00 | 0.00 | 72 | 1018.8 |
| 20260905112912 | 78 | 13 | 1.0 | 3.0 | 0.00 | 0.00 | 0.00 | 72 | 1018.7 |
| 20260905112813 | 78 | 13 | 1.0 | 3.0 | 0.00 | 0.00 | 0.00 | 73 | 1018.7 |
| 20260905112701 | 78 | 21 | 1.0 | 2.0 | 0.00 | 0.00 | 0.00 | 73 | 1018.7 |
| 20260905112558 | 78 | 21 | 1.0 | 2.0 | 0.00 | 0.00 | 0.00 | 73 | 1018.6 |
| 20260905112504 | 78 | 21 | 1.0 | 2.0 | 0.00 | 0.00 | 0.00 | 73 | 1018.6 |
| 20260905112358 | 78 | 21 | 1.0 | 2.0 | 0.00 | 0.00 | 0.00 | 73 | 1018.6 |
| 20260905112300 | 78 | 21 | 1.0 | 2.0 | 0.00 | 0.00 | 0.00 | 73 | 1018.6 |
| 20260905112153 | 78 | 21 | 1.0 | 2.0 | 0.00 | 0.00 | 0.00 | 73 | 1018.6 |
| 20260905112052 | 78 | 21 | 1.0 | 3.0 | 0.00 | 0.00 | 0.00 | 73 | 1018.7 |
| 20260905111957 | 78 | 21 | 1.0 | 3.0 | 0.00 | 0.00 | 0.00 | 73 | 1018.7 |
| 20260905111853 | 78 | 21 | 1.0 | 3.0 | 0.00 | 0.00 | 0.00 | 73 | 1018.6 |
| 20260905111753 | 78 | 21 | 1.0 | 3.0 | 0.00 | 0.00 | 0.00 | 73 | 1018.6 |
| 20260905111652 | 78 | 21 | 1.0 | 3.0 | 0.00 | 0.00 | 0.00 | 73 | 1018.6 |
| 20260905111551 | 78 | 21 | 1.0 | 3.0 | 0.00 | 0.00 | 0.00 | 73 | 1018.6 |
| 20260905111451 | 78 | 21 | 2.0 | 3.0 | 0.00 | 0.00 | 0.00 | 73 | 1018.5 |
| 20260905111428 | 78 | 21 | 2.0 | 3.0 | 0.00 | 0.00 | 0.00 | 73 | 1018.5 |
| 20260905111417 | 78 | 21 | 2.0 | 3.0 | 0.00 | 0.00 | 0.00 | 73 | 1018.5 |
| 20260905111140 | 78 | 21 | 2.0 | 3.0 | 0.00 | 0.00 | 0.00 | 73 | 1018.5 |
| 20260905111115 | 78 | 21 | 2.0 | 3.0 | 0.00 | 0.00 | 0.00 | 73 | 1018.4 |
| 20260905111105 | 78 | 21 | 2.0 | 3.0 | 0.00 | 0.00 | 0.00 | 73 | 1018.4 |
| 20260905110836 | 78 | 21 | 2.0 | 3.0 | 0.00 | 0.00 | 0.00 | 73 | 1018.4 |
| 20260905110743 | 78 | 21 | 2.0 | 3.0 | 0.00 | 0.00 | 0.00 | 73 | 1018.4 |
| 20260905110718 | 78 | 22 | 2.0 | 3.0 | 0.00 | 0.00 | 0.00 | 73 | 1018.4 |
| 20260905110704 | 78 | 22 | 2.0 | 3.0 | 0.00 | 0.00 | 0.00 | 72 | 1018.2 |
| 20260905110512 | 78 | 22 | 2.0 | 3.0 | 0.00 | 0.00 | 0.00 | 73 | 1018.2 |
| 20260905110452 | 78 | 22 | 2.0 | 3.0 | 0.00 | 0.00 | 0.00 | 73 | 1018.2 |
| 20260905110423 | 78 | 22 | 2.0 | 3.0 | 0.00 | 0.00 | 0.00 | 73 | 1018.2 |
| 20260905110131 | 78 | 22 | 2.0 | 3.0 | 0.00 | 0.00 | 0.00 | 73 | 1018.2 |
| 20260905110030 | 78 | 22 | 2.0 | 3.0 | 0.00 | 0.00 | 0.00 | 73 | 1018.2 |
| 20260905105928 | 78 | 22 | 2.0 | 3.0 | 0.00 | 0.00 | 0.00 | 73 | 1018.2 |
| 20260905105827 | 78 | 22 | 2.0 | 4.0 | 0.00 | 0.00 | 0.00 | 73 | 1018.2 |
| 20260905105725 | 78 | 22 | 2.0 | 4.0 | 0.00 | 0.00 | 0.00 | 73 | 1018.2 |
| 20260905105621 | 78 | 22 | 2.0 | 4.0 | 0.00 | 0.00 | 0.00 | 73 | 1018.2 |
| 20260905105523 | 78 | 22 | 2.0 | 4.0 | 0.00 | 0.00 | 0.00 | 73 | 1018.2 |
| 20260905105420 | 78 | 22 | 2.0 | 4.0 | 0.00 | 0.00 | 0.00 | 73 | 1018.2 |
| 20260905105318 | 78 | 21 | 2.0 | 4.0 | 0.00 | 0.00 | 0.00 | 73 | 1018.2 |
| 20260905105218 | 78 | 21 | 2.0 | 4.0 | 0.00 | 0.00 | 0.00 | 73 | 1018.2 |
| 20260905105119 | 78 | 21 | 2.0 | 4.0 | 0.00 | 0.00 | 0.00 | 73 | 1018.2 |
| 20260905105051 | 78 | 21 | 2.0 | 4.0 | 0.00 | 0.00 | 0.00 | 73 | 1018.2 |
| 20260905105039 | 78 | 21 | 2.0 | 4.0 | 0.00 | 0.00 | 0.00 | 73 | 1018.2 |
| 20260905104823 | 78 | 21 | 2.0 | 4.0 | 0.00 | 0.00 | 0.00 | 73 | 1018.2 |
| 20260905104809 | 78 | 18 | 2.0 | 4.0 | 0.00 | 0.00 | 0.00 | 73 | 1018.2 |
| 20260905104752 | 78 | 21 | 2.0 | 4.0 | 0.00 | 0.00 | 0.00 | 73 | 1018.1 |
| 20260905104556 | 78 | 5 | 2.0 | 4.0 | 0.00 | 0.00 | 0.00 | 73 | 1018.1 |
| 20260905104536 | 78 | 18 | 2.0 | 4.0 | 0.00 | 0.00 | 0.00 | 73 | 1018.1 |
| 20260905104517 | 78 | 16 | 2.0 | 4.0 | 0.00 | 0.00 | 0.00 | 73 | 1018.1 |
| 20260905104344 | 78 | 16 | 2.0 | 4.0 | 0.00 | 0.00 | 0.00 | 73 | 1018.1 |
| 20260905104248 | 78 | 16 | 2.0 | 4.0 | 0.00 | 0.00 | 0.00 | 73 | 1018.2 |
| 20260905104012 | 78 | 5 | 2.0 | 4.0 | 0.00 | 0.00 | 0.00 | 73 | 1018.1 |
| 20260905103907 | 78 | 5 | 2.0 | 4.0 | 0.00 | 0.00 | 0.00 | 73 | 1018.1 |
| 20260905103808 | 78 | 5 | 2.0 | 4.0 | 0.00 | 0.00 | 0.00 | 73 | 1018.1 |
| 20260905103708 | 78 | 5 | 2.0 | 4.0 | 0.00 | 0.00 | 0.00 | 73 | 1018.1 |
| 20260905103606 | 79 | 5 | 2.0 | 4.0 | 0.00 | 0.00 | 0.00 | 73 | 1018.1 |
| 20260905103507 | 79 | 5 | 2.0 | 4.0 | 0.00 | 0.00 | 0.00 | 73 | 1018.1 |
| 20260905103401 | 79 | 5 | 3.0 | 4.0 | 0.00 | 0.00 | 0.00 | 73 | 1018.1 |
| 20260905103259 | 79 | 5 | 3.0 | 4.0 | 0.00 | 0.00 | 0.00 | 73 | 1018.1 |
| 20260905103202 | 79 | 5 | 3.0 | 4.0 | 0.00 | 0.00 | 0.00 | 72 | 1018.1 |
| 20260905103136 | 79 | 5 | 3.0 | 4.0 | 0.00 | 0.00 | 0.00 | 72 | 1018.1 |
| 20260905103124 | 79 | 5 | 3.0 | 4.0 | 0.00 | 0.00 | 0.00 | 72 | 1018.1 |
| 20260905102857 | 79 | 0 | 3.0 | 5.0 | 0.00 | 0.00 | 0.00 | 72 | 1018.1 |
| 20260905102755 | 79 | 355 | 3.0 | 5.0 | 0.00 | 0.00 | 0.00 | 72 | 1018.1 |
| 20260905102652 | 79 | 355 | 3.0 | 5.0 | 0.00 | 0.00 | 0.00 | 72 | 1018.1 |
| 20260905102552 | 79 | 17 | 3.0 | 5.0 | 0.00 | 0.00 | 0.00 | 71 | 1018.1 |
| 20260905102453 | 79 | 19 | 3.0 | 5.0 | 0.00 | 0.00 | 0.00 | 71 | 1018.1 |
| 20260905102349 | 79 | 20 | 3.0 | 5.0 | 0.00 | 0.00 | 0.00 | 71 | 1018.1 |
| 20260905102257 | 79 | 5 | 3.0 | 5.0 | 0.00 | 0.00 | 0.00 | 71 | 1018.0 |
| 20260905102149 | 79 | 28 | 3.0 | 5.0 | 0.00 | 0.00 | 0.00 | 71 | 1018.0 |
| 20260905102119 | 79 | 355 | 3.0 | 5.0 | 0.00 | 0.00 | 0.00 | 70 | 1018.0 |
| 20260905102109 | 79 | 5 | 3.0 | 5.0 | 0.00 | 0.00 | 0.00 | 71 | 1018.1 |
| 20260905101844 | 79 | 355 | 3.0 | 5.0 | 0.00 | 0.00 | 0.00 | 70 | 1018.0 |
| 20260905101744 | 79 | 18 | 3.0 | 5.0 | 0.00 | 0.00 | 0.00 | 70 | 1018.1 |
| 20260905101646 | 79 | 12 | 3.0 | 5.0 | 0.00 | 0.00 | 0.00 | 70 | 1018.0 |
| 20260905101619 | 79 | 5 | 3.0 | 5.0 | 0.00 | 0.00 | 0.00 | 70 | 1018.0 |
| 20260905101606 | 80 | 5 | 3.0 | 5.0 | 0.00 | 0.00 | 0.00 | 70 | 1018.0 |
| 20260905101349 | 80 | 333 | 3.0 | 5.0 | 0.00 | 0.00 | 0.00 | 70 | 1018.0 |
| 20260905101244 | 80 | 348 | 3.0 | 5.0 | 0.00 | 0.00 | 0.00 | 70 | 1018.1 |
| 20260905101144 | 80 | 355 | 3.0 | 6.0 | 0.00 | 0.00 | 0.00 | 70 | 1018.0 |
| 20260905101042 | 80 | 355 | 3.0 | 6.0 | 0.00 | 0.00 | 0.00 | 70 | 1018.0 |
| 20260905100943 | 80 | 5 | 3.0 | 6.0 | 0.00 | 0.00 | 0.00 | 70 | 1018.0 |
| 20260905100853 | 79 | 0 | 3.0 | 6.0 | 0.00 | 0.00 | 0.00 | 70 | 1018.0 |
| 20260905100821 | 79 | 347 | 3.0 | 6.0 | 0.00 | 0.00 | 0.00 | 70 | 1017.9 |
| 20260905100817 | 80 | 346 | 3.0 | 6.0 | 0.00 | 0.00 | 0.00 | 70 | 1018.0 |
| 20260905100811 | 80 | 342 | 3.0 | 5.0 | 0.00 | 0.00 | 0.00 | 70 | 1018.0 |
| 20260905100757 | 80 | 351 | 3.0 | 6.0 | 0.00 | 0.00 | 0.00 | 70 | 1018.0 |
| 20260905100723 | 80 | 355 | 2.0 | 5.0 | 0.00 | 0.00 | 0.00 | 70 | 1018.0 |
| 20260905100711 | 80 | 5 | 3.0 | 6.0 | 0.00 | 0.00 | 0.00 | 70 | 1017.9 |
| 20260905100515 | 79 | 338 | 3.0 | 6.0 | 0.00 | 0.00 | 0.00 | 70 | 1018.0 |
| 20260905100444 | 80 | 345 | 3.0 | 6.0 | 0.00 | 0.00 | 0.00 | 70 | 1018.0 |
| 20260905095931 | 80 | 355 | 2.0 | 5.0 | 0.00 | 0.00 | 0.00 | 70 | 1017.9 |
| 20260905095832 | 80 | 340 | 2.0 | 4.0 | 0.00 | 0.00 | 0.00 | 69 | 1018.0 |
| 20260905095733 | 80 | 355 | 3.0 | 5.0 | 0.00 | 0.00 | 0.00 | 69 | 1017.9 |
| 20260905095644 | 80 | 0 | 3.0 | 5.0 | 0.00 | 0.00 | 0.00 | 69 | 1018.0 |
| 20260905095626 | 80 | 5 | 3.0 | 5.0 | 0.00 | 0.00 | 0.00 | 69 | 1017.9 |
| 20260905095553 | 80 | 0 | 3.0 | 5.0 | 0.00 | 0.00 | 0.00 | 69 | 1018.0 |
| 20260905095532 | 80 | 0 | 3.0 | 5.0 | 0.00 | 0.00 | 0.00 | 69 | 1018.0 |
| 20260905095435 | 80 | 0 | 3.0 | 5.0 | 0.00 | 0.00 | 0.00 | 69 | 1018.0 |
| 20260905095320 | 80 | 11 | 3.0 | 5.0 | 0.00 | 0.00 | 0.00 | 68 | 1018.0 |
| 20260905095221 | 80 | 12 | 3.0 | 5.0 | 0.00 | 0.00 | 0.00 | 68 | 1017.9 |
| 20260905095122 | 80 | 12 | 3.0 | 5.0 | 0.00 | 0.00 | 0.00 | 68 | 1017.9 |
| 20260905095026 | 80 | 0 | 3.0 | 5.0 | 0.00 | 0.00 | 0.00 | 68 | 1017.9 |
| 20260905095014 | 80 | 5 | 3.0 | 5.0 | 0.00 | 0.00 | 0.00 | 68 | 1017.9 |
| 20260905094956 | 80 | 5 | 3.0 | 5.0 | 0.00 | 0.00 | 0.00 | 68 | 1017.8 |
| 20260905094755 | 80 | 5 | 2.0 | 5.0 | 0.00 | 0.00 | 0.00 | 67 | 1017.9 |
| 20260905094749 | 80 | 350 | 2.0 | 5.0 | 0.00 | 0.00 | 0.00 | 67 | 1017.8 |
| 20260905094731 | 80 | 347 | 3.0 | 5.0 | 0.00 | 0.00 | 0.00 | 68 | 1017.9 |
| 20260905094704 | 80 | 5 | 2.0 | 5.0 | 0.00 | 0.00 | 0.00 | 67 | 1017.9 |
| 20260905094523 | 80 | 11 | 2.0 | 5.0 | 0.00 | 0.00 | 0.00 | 67 | 1017.8 |
| 20260905094517 | 80 | 350 | 2.0 | 5.0 | 0.00 | 0.00 | 0.00 | 67 | 1017.8 |
| 20260905094456 | 80 | 13 | 2.0 | 5.0 | 0.00 | 0.00 | 0.00 | 67 | 1017.9 |
| 20260905094415 | 80 | 19 | 2.0 | 5.0 | 0.00 | 0.00 | 0.00 | 67 | 1017.9 |
| 20260905094018 | 80 | 346 | 2.0 | 5.0 | 0.00 | 0.00 | 0.00 | 67 | 1017.8 |
| 20260905093919 | 80 | 349 | 2.0 | 5.0 | 0.00 | 0.00 | 0.00 | 66 | 1017.8 |
| 20260905093832 | 80 | 328 | 2.0 | 5.0 | 0.00 | 0.00 | 0.00 | 66 | 1017.7 |
| 20260905093718 | 80 | 327 | 2.0 | 5.0 | 0.00 | 0.00 | 0.00 | 66 | 1017.7 |
| 20260905093620 | 80 | 331 | 2.0 | 5.0 | 0.00 | 0.00 | 0.00 | 66 | 1017.7 |
| 20260905093524 | 80 | 336 | 2.0 | 5.0 | 0.00 | 0.00 | 0.00 | 66 | 1017.6 |
| 20260905093420 | 80 | 345 | 2.0 | 4.0 | 0.00 | 0.00 | 0.00 | 66 | 1017.7 |
| 20260905093319 | 80 | 323 | 2.0 | 4.0 | 0.00 | 0.00 | 0.00 | 66 | 1017.6 |
| 20260905093218 | 80 | 311 | 2.0 | 4.0 | 0.00 | 0.00 | 0.00 | 66 | 1017.6 |
| 20260905093120 | 80 | 311 | 2.0 | 4.0 | 0.00 | 0.00 | 0.00 | 66 | 1017.6 |
| 20260905093020 | 80 | 328 | 2.0 | 5.0 | 0.00 | 0.00 | 0.00 | 66 | 1017.7 |
| 20260905092916 | 80 | 328 | 2.0 | 5.0 | 0.00 | 0.00 | 0.00 | 66 | 1017.6 |
| 20260905092812 | 80 | 328 | 2.0 | 5.0 | 0.00 | 0.00 | 0.00 | 66 | 1017.7 |
| 20260905092742 | 80 | 331 | 3.0 | 5.0 | 0.00 | 0.00 | 0.00 | 67 | 1017.7 |
| 20260905092735 | 80 | 302 | 2.0 | 4.0 | 0.00 | 0.00 | 0.00 | 67 | 1017.9 |
| 20260905092730 | 80 | 303 | 2.0 | 4.0 | 0.00 | 0.00 | 0.00 | 67 | 1017.8 |
| 20260905092715 | 80 | 325 | 2.0 | 5.0 | 0.00 | 0.00 | 0.00 | 66 | 1017.7 |
| 20260905092706 | 80 | 325 | 2.0 | 5.0 | 0.00 | 0.00 | 0.00 | 66 | 1017.7 |
| 20260905092643 | 80 | 325 | 2.0 | 5.0 | 0.00 | 0.00 | 0.00 | 66 | 1017.7 |
| 20260905092620 | 80 | 323 | 2.0 | 5.0 | 0.00 | 0.00 | 0.00 | 67 | 1017.8 |
| 20260905092605 | 80 | 323 | 2.0 | 5.0 | 0.00 | 0.00 | 0.00 | 66 | 1017.8 |
| 20260905092258 | 80 | 313 | 2.0 | 5.0 | 0.00 | 0.00 | 0.00 | 67 | 1017.7 |
| 20260905092252 | 80 | 321 | 2.0 | 4.0 | 0.00 | 0.00 | 0.00 | 67 | 1017.9 |
| 20260905092230 | 80 | 329 | 2.0 | 5.0 | 0.00 | 0.00 | 0.00 | 67 | 1017.8 |
| 20260905092202 | 80 | 331 | 3.0 | 5.0 | 0.00 | 0.00 | 0.00 | 67 | 1017.7 |
| 20260905091959 | 80 | 304 | 2.0 | 5.0 | 0.00 | 0.00 | 0.00 | 67 | 1017.7 |
| 20260905091832 | 80 | 300 | 2.0 | 4.0 | 0.00 | 0.00 | 0.00 | 67 | 1017.8 |
| 20260905091818 | 80 | 303 | 2.0 | 5.0 | 0.00 | 0.00 | 0.00 | 67 | 1017.8 |
| 20260905091744 | 80 | 350 | 2.0 | 5.0 | 0.00 | 0.00 | 0.00 | 67 | 1017.8 |
| 20260905091648 | 80 | 319 | 2.0 | 5.0 | 0.00 | 0.00 | 0.00 | 67 | 1017.8 |
| 20260905091507 | 80 | 320 | 2.0 | 5.0 | 0.00 | 0.00 | 0.00 | 67 | 1017.7 |
| 20260905091441 | 80 | 317 | 2.0 | 5.0 | 0.00 | 0.00 | 0.00 | 67 | 1017.8 |
| 20260905091412 | 80 | 317 | 2.0 | 5.0 | 0.00 | 0.00 | 0.00 | 67 | 1017.8 |
| 20260905091342 | 80 | 297 | 2.0 | 5.0 | 0.00 | 0.00 | 0.00 | 67 | 1017.7 |
| 20260905090707 | 80 | 301 | 2.0 | 4.0 | 0.00 | 0.00 | 0.00 | 67 | 1017.8 |
| 20260905090550 | 80 | 299 | 2.0 | 4.0 | 0.00 | 0.00 | 0.00 | 67 | 1017.8 |
| 20260905090537 | 80 | 5 | 2.0 | 4.0 | 0.00 | 0.00 | 0.00 | 68 | 1017.8 |
| 20260905090525 | 80 | 355 | 2.0 | 4.0 | 0.00 | 0.00 | 0.00 | 68 | 1017.9 |
| 20260905090249 | 80 | 9 | 2.0 | 4.0 | 0.00 | 0.00 | 0.00 | 68 | 1017.8 |
| 20260905090221 | 80 | 350 | 2.0 | 4.0 | 0.00 | 0.00 | 0.00 | 68 | 1017.9 |
| 20260905090210 | 80 | 344 | 2.0 | 4.0 | 0.00 | 0.00 | 0.00 | 68 | 1017.9 |
| 20260905085949 | 80 | 350 | 2.0 | 4.0 | 0.00 | 0.00 | 0.00 | 68 | 1017.9 |
| 20260905085848 | 80 | 355 | 2.0 | 4.0 | 0.00 | 0.00 | 0.00 | 68 | 1018.0 |
| 20260905085809 | 80 | 346 | 2.0 | 4.0 | 0.00 | 0.00 | 0.00 | 68 | 1017.9 |
| 20260905085803 | 80 | 355 | 2.0 | 4.0 | 0.00 | 0.00 | 0.00 | 68 | 1017.9 |
| 20260905085752 | 80 | 355 | 2.0 | 4.0 | 0.00 | 0.00 | 0.00 | 68 | 1017.9 |
| 20260905085731 | 80 | 355 | 2.0 | 4.0 | 0.00 | 0.00 | 0.00 | 68 | 1018.0 |
| 20260905085612 | 80 | 355 | 2.0 | 4.0 | 0.00 | 0.00 | 0.00 | 68 | 1017.9 |
| 20260905085340 | 81 | 346 | 2.0 | 4.0 | 0.00 | 0.00 | 0.00 | 67 | 1017.9 |
| 20260905085314 | 81 | 336 | 2.0 | 3.0 | 0.00 | 0.00 | 0.00 | 67 | 1017.9 |
| 20260905085305 | 81 | 348 | 2.0 | 3.0 | 0.00 | 0.00 | 0.00 | 67 | 1017.9 |
| 20260905085109 | 81 | 311 | 2.0 | 3.0 | 0.00 | 0.00 | 0.00 | 67 | 1017.9 |
| 20260905085059 | 81 | 334 | 2.0 | 3.0 | 0.00 | 0.00 | 0.00 | 67 | 1017.8 |
| 20260905084838 | 81 | 311 | 2.0 | 3.0 | 0.00 | 0.00 | 0.00 | 67 | 1017.9 |
| 20260905084743 | 81 | 311 | 2.0 | 4.0 | 0.00 | 0.00 | 0.00 | 67 | 1017.9 |
| 20260905084637 | 81 | 311 | 2.0 | 4.0 | 0.00 | 0.00 | 0.00 | 67 | 1018.0 |
| 20260905084535 | 81 | 309 | 2.0 | 4.0 | 0.00 | 0.00 | 0.00 | 67 | 1017.9 |
| 20260905084431 | 81 | 309 | 2.0 | 4.0 | 0.00 | 0.00 | 0.00 | 67 | 1017.9 |
| 20260905084328 | 81 | 309 | 2.0 | 4.0 | 0.00 | 0.00 | 0.00 | 67 | 1017.9 |
| 20260905084229 | 81 | 309 | 2.0 | 4.0 | 0.00 | 0.00 | 0.00 | 67 | 1017.9 |
| 20260905084133 | 81 | 309 | 2.0 | 4.0 | 0.00 | 0.00 | 0.00 | 67 | 1017.9 |
| 20260905084028 | 81 | 309 | 3.0 | 4.0 | 0.00 | 0.00 | 0.00 | 67 | 1017.9 |
| 20260905083917 | 81 | 309 | 2.0 | 4.0 | 0.00 | 0.00 | 0.00 | 66 | 1017.9 |
| 20260905083851 | 81 | 304 | 3.0 | 5.0 | 0.00 | 0.00 | 0.00 | 66 | 1017.9 |
| 20260905083838 | 81 | 306 | 2.0 | 4.0 | 0.00 | 0.00 | 0.00 | 66 | 1018.0 |
| 20260905083700 | 81 | 319 | 3.0 | 5.0 | 0.00 | 0.00 | 0.00 | 66 | 1017.9 |
| 20260905083647 | 81 | 303 | 3.0 | 5.0 | 0.00 | 0.00 | 0.00 | 66 | 1017.9 |
| 20260905083416 | 81 | 321 | 3.0 | 5.0 | 0.00 | 0.00 | 0.00 | 66 | 1017.9 |
| 20260905083316 | 81 | 321 | 3.0 | 5.0 | 0.00 | 0.00 | 0.00 | 66 | 1017.9 |
| 20260905083246 | 81 | 325 | 3.0 | 5.0 | 0.00 | 0.00 | 0.00 | 66 | 1017.9 |
| 20260905083236 | 81 | 304 | 3.0 | 5.0 | 0.00 | 0.00 | 0.00 | 66 | 1017.8 |
| 20260905083013 | 81 | 320 | 3.0 | 5.0 | 0.00 | 0.00 | 0.00 | 66 | 1017.9 |
| 20260905082914 | 81 | 321 | 3.0 | 5.0 | 0.00 | 0.00 | 0.00 | 66 | 1018.0 |
| 20260905082810 | 81 | 315 | 3.0 | 5.0 | 0.00 | 0.00 | 0.00 | 65 | 1017.9 |
| 20260905082710 | 81 | 310 | 3.0 | 5.0 | 0.00 | 0.00 | 0.00 | 65 | 1017.9 |
| 20260905082640 | 81 | 342 | 3.0 | 5.0 | 0.00 | 0.00 | 0.00 | 65 | 1017.9 |
| 20260905082629 | 81 | 341 | 3.0 | 5.0 | 0.00 | 0.00 | 0.00 | 65 | 1018.0 |
| 20260905082410 | 81 | 317 | 3.0 | 4.0 | 0.00 | 0.00 | 0.00 | 65 | 1018.0 |
| 20260905082356 | 81 | 344 | 3.0 | 5.0 | 0.00 | 0.00 | 0.00 | 65 | 1017.9 |
| 20260905082337 | 81 | 317 | 3.0 | 4.0 | 0.00 | 0.00 | 0.00 | 65 | 1018.0 |
| 20260905082320 | 81 | 338 | 3.0 | 5.0 | 0.00 | 0.00 | 0.00 | 65 | 1018.0 |
| 20260905082129 | 82 | 316 | 2.0 | 4.0 | 0.00 | 0.00 | 0.00 | 64 | 1018.0 |
| 20260905082118 | 81 | 317 | 3.0 | 4.0 | 0.00 | 0.00 | 0.00 | 64 | 1018.0 |
| 20260905081926 | 81 | 313 | 2.0 | 4.0 | 0.00 | 0.00 | 0.00 | 64 | 1018.0 |
| 20260905081914 | 81 | 323 | 2.0 | 4.0 | 0.00 | 0.00 | 0.00 | 64 | 1017.9 |
| 20260905081649 | 81 | 320 | 2.0 | 4.0 | 0.00 | 0.00 | 0.00 | 64 | 1018.0 |
| 20260905081548 | 81 | 324 | 2.0 | 4.0 | 0.00 | 0.00 | 0.00 | 64 | 1018.0 |
| 20260905081446 | 81 | 317 | 2.0 | 4.0 | 0.00 | 0.00 | 0.00 | 63 | 1018.0 |
| 20260905081341 | 81 | 317 | 2.0 | 4.0 | 0.00 | 0.00 | 0.00 | 63 | 1018.0 |
| 20260905081313 | 81 | 316 | 2.0 | 4.0 | 0.00 | 0.00 | 0.00 | 63 | 1018.1 |
| 20260905081302 | 81 | 317 | 2.0 | 4.0 | 0.00 | 0.00 | 0.00 | 63 | 1018.1 |
| 20260905081042 | 81 | 316 | 2.0 | 4.0 | 0.00 | 0.00 | 0.00 | 63 | 1018.1 |
| 20260905080941 | 81 | 316 | 2.0 | 4.0 | 0.00 | 0.00 | 0.00 | 63 | 1018.1 |
| 20260905080841 | 81 | 316 | 2.0 | 4.0 | 0.00 | 0.00 | 0.00 | 64 | 1018.0 |
| 20260905080735 | 81 | 316 | 2.0 | 4.0 | 0.00 | 0.00 | 0.00 | 64 | 1018.1 |
| 20260905080634 | 81 | 317 | 2.0 | 4.0 | 0.00 | 0.00 | 0.00 | 64 | 1018.1 |
| 20260905080604 | 81 | 317 | 2.0 | 4.0 | 0.00 | 0.00 | 0.00 | 64 | 1018.1 |
| 20260905080553 | 81 | 317 | 2.0 | 4.0 | 0.00 | 0.00 | 0.00 | 64 | 1018.1 |
| 20260905080323 | 81 | 317 | 2.0 | 4.0 | 0.00 | 0.00 | 0.00 | 64 | 1018.1 |
| 20260905080310 | 81 | 317 | 2.0 | 4.0 | 0.00 | 0.00 | 0.00 | 65 | 1018.1 |
| 20260905080254 | 81 | 317 | 2.0 | 4.0 | 0.00 | 0.00 | 0.00 | 65 | 1018.1 |
| 20260905080128 | 81 | 317 | 2.0 | 4.0 | 0.00 | 0.00 | 0.00 | 65 | 1018.1 |
| 20260905080120 | 81 | 317 | 2.0 | 4.0 | 0.00 | 0.00 | 0.00 | 65 | 1018.1 |
| 20260905075720 | 81 | 315 | 2.0 | 4.0 | 0.00 | 0.00 | 0.00 | 65 | 1018.1 |
| 20260905075651 | 81 | 309 | 2.0 | 4.0 | 0.00 | 0.00 | 0.00 | 66 | 1018.2 |
| 20260905075640 | 81 | 315 | 2.0 | 4.0 | 0.00 | 0.00 | 0.00 | 66 | 1018.2 |
| 20260905075429 | 82 | 306 | 2.0 | 3.0 | 0.00 | 0.00 | 0.00 | 66 | 1018.2 |
| 20260905075419 | 81 | 309 | 2.0 | 3.0 | 0.00 | 0.00 | 0.00 | 66 | 1018.2 |
| 20260905075412 | 81 | 306 | 2.0 | 3.0 | 0.00 | 0.00 | 0.00 | 66 | 1018.2 |
| 20260905075350 | 81 | 308 | 2.0 | 3.0 | 0.00 | 0.00 | 0.00 | 66 | 1018.1 |
| 20260905075026 | 81 | 306 | 2.0 | 3.0 | 0.00 | 0.00 | 0.00 | 66 | 1018.2 |
| 20260905075013 | 82 | 306 | 2.0 | 3.0 | 0.00 | 0.00 | 0.00 | 66 | 1018.2 |
| 20260905074952 | 82 | 306 | 2.0 | 3.0 | 0.00 | 0.00 | 0.00 | 66 | 1018.2 |
| 20260905074825 | 81 | 306 | 2.0 | 3.0 | 0.00 | 0.00 | 0.00 | 66 | 1018.2 |
| 20260905074604 | 81 | 307 | 2.0 | 3.0 | 0.00 | 0.00 | 0.00 | 66 | 1018.2 |
| 20260905074500 | 81 | 307 | 2.0 | 3.0 | 0.00 | 0.00 | 0.00 | 66 | 1018.2 |
| 20260905074359 | 81 | 308 | 2.0 | 3.0 | 0.00 | 0.00 | 0.00 | 66 | 1018.2 |
| 20260905074300 | 81 | 308 | 2.0 | 3.0 | 0.00 | 0.00 | 0.00 | 67 | 1018.2 |
| 20260905074157 | 81 | 313 | 2.0 | 3.0 | 0.00 | 0.00 | 0.00 | 66 | 1018.4 |
| 20260905074055 | 81 | 313 | 2.0 | 3.0 | 0.00 | 0.00 | 0.00 | 67 | 1018.4 |
| 20260905073955 | 81 | 313 | 2.0 | 3.0 | 0.00 | 0.00 | 0.00 | 67 | 1018.2 |
| 20260905073853 | 81 | 313 | 2.0 | 3.0 | 0.00 | 0.00 | 0.00 | 67 | 1018.2 |
| 20260905073752 | 81 | 313 | 2.0 | 3.0 | 0.00 | 0.00 | 0.00 | 67 | 1018.2 |
| 20260905073650 | 81 | 313 | 2.0 | 3.0 | 0.00 | 0.00 | 0.00 | 67 | 1018.2 |
| 20260905073551 | 81 | 313 | 2.0 | 3.0 | 0.00 | 0.00 | 0.00 | 67 | 1018.2 |
| 20260905073521 | 81 | 313 | 2.0 | 3.0 | 0.00 | 0.00 | 0.00 | 67 | 1018.2 |
| 20260905073511 | 81 | 313 | 2.0 | 3.0 | 0.00 | 0.00 | 0.00 | 67 | 1018.2 |
| 20260905073319 | 81 | 313 | 2.0 | 3.0 | 0.00 | 0.00 | 0.00 | 67 | 1018.4 |
| 20260905073309 | 81 | 313 | 2.0 | 3.0 | 0.00 | 0.00 | 0.00 | 67 | 1018.2 |
| 20260905073045 | 81 | 313 | 2.0 | 3.0 | 0.00 | 0.00 | 0.00 | 67 | 1018.2 |
| 20260905072943 | 81 | 313 | 2.0 | 3.0 | 0.00 | 0.00 | 0.00 | 67 | 1018.2 |
| 20260905072843 | 81 | 313 | 2.0 | 4.0 | 0.00 | 0.00 | 0.00 | 67 | 1018.2 |
| 20260905072742 | 81 | 313 | 2.0 | 4.0 | 0.00 | 0.00 | 0.00 | 67 | 1018.2 |
| 20260905072641 | 81 | 313 | 2.0 | 4.0 | 0.00 | 0.00 | 0.00 | 67 | 1018.2 |
| 20260905072543 | 81 | 313 | 2.0 | 4.0 | 0.00 | 0.00 | 0.00 | 67 | 1018.2 |
| 20260905072439 | 81 | 313 | 2.0 | 4.0 | 0.00 | 0.00 | 0.00 | 67 | 1018.2 |
| 20260905072419 | 81 | 313 | 2.0 | 4.0 | 0.00 | 0.00 | 0.00 | 67 | 1018.2 |
| 20260905072407 | 81 | 313 | 2.0 | 4.0 | 0.00 | 0.00 | 0.00 | 67 | 1018.2 |
| 20260905072142 | 81 | 313 | 2.0 | 4.0 | 0.00 | 0.00 | 0.00 | 67 | 1018.2 |
| 20260905072039 | 81 | 313 | 2.0 | 4.0 | 0.00 | 0.00 | 0.00 | 67 | 1018.2 |
| 20260905071941 | 81 | 313 | 2.0 | 4.0 | 0.00 | 0.00 | 0.00 | 67 | 1018.4 |
| 20260905071842 | 81 | 314 | 2.0 | 4.0 | 0.00 | 0.00 | 0.00 | 67 | 1018.4 |
| 20260905071741 | 81 | 314 | 2.0 | 4.0 | 0.00 | 0.00 | 0.00 | 68 | 1018.2 |
| 20260905071641 | 81 | 314 | 2.0 | 4.0 | 0.00 | 0.00 | 0.00 | 67 | 1018.2 |
| 20260905071541 | 81 | 314 | 2.0 | 4.0 | 0.00 | 0.00 | 0.00 | 67 | 1018.2 |
| 20260905071440 | 81 | 314 | 2.0 | 4.0 | 0.00 | 0.00 | 0.00 | 68 | 1018.2 |
| 20260905071341 | 81 | 314 | 2.0 | 4.0 | 0.00 | 0.00 | 0.00 | 68 | 1018.2 |
| 20260905071240 | 81 | 315 | 2.0 | 4.0 | 0.00 | 0.00 | 0.00 | 68 | 1018.2 |
| 20260905071137 | 81 | 311 | 2.0 | 4.0 | 0.00 | 0.00 | 0.00 | 68 | 1018.2 |
| 20260905071037 | 81 | 313 | 2.0 | 3.0 | 0.00 | 0.00 | 0.00 | 68 | 1018.4 |
| 20260905071006 | 81 | 313 | 2.0 | 3.0 | 0.00 | 0.00 | 0.00 | 68 | 1018.2 |
| 20260905070956 | 81 | 313 | 2.0 | 3.0 | 0.00 | 0.00 | 0.00 | 68 | 1018.2 |
| 20260905070732 | 81 | 313 | 2.0 | 3.0 | 0.00 | 0.00 | 0.00 | 68 | 1018.4 |
| 20260905070633 | 81 | 313 | 2.0 | 3.0 | 0.00 | 0.00 | 0.00 | 68 | 1018.4 |
| 20260905070530 | 81 | 313 | 2.0 | 3.0 | 0.00 | 0.00 | 0.00 | 68 | 1018.4 |
| 20260905070428 | 81 | 313 | 2.0 | 3.0 | 0.00 | 0.00 | 0.00 | 68 | 1018.5 |
| 20260905070328 | 81 | 313 | 2.0 | 3.0 | 0.00 | 0.00 | 0.00 | 68 | 1018.5 |
| 20260905070225 | 81 | 313 | 2.0 | 3.0 | 0.00 | 0.00 | 0.00 | 68 | 1018.5 |
| 20260905070125 | 81 | 313 | 2.0 | 3.0 | 0.00 | 0.00 | 0.00 | 68 | 1018.5 |
| 20260905070026 | 81 | 313 | 2.0 | 3.0 | 0.00 | 0.00 | 0.00 | 68 | 1018.5 |
| 20260905065956 | 81 | 313 | 2.0 | 3.0 | 0.00 | 0.00 | 0.00 | 68 | 1018.5 |
| 20260905065945 | 81 | 313 | 2.0 | 3.0 | 0.00 | 0.00 | 0.00 | 68 | 1018.5 |
| 20260905065723 | 81 | 313 | 2.0 | 3.0 | 0.00 | 0.00 | 0.00 | 68 | 1018.5 |
| 20260905065621 | 81 | 313 | 2.0 | 3.0 | 0.00 | 0.00 | 0.00 | 68 | 1018.6 |
| 20260905065521 | 81 | 313 | 2.0 | 3.0 | 0.00 | 0.00 | 0.00 | 68 | 1018.5 |
| 20260905065423 | 81 | 313 | 2.0 | 3.0 | 0.00 | 0.00 | 0.00 | 68 | 1018.5 |
| 20260905065345 | 81 | 313 | 2.0 | 3.0 | 0.00 | 0.00 | 0.00 | 68 | 1018.6 |
| 20260905065333 | 81 | 313 | 2.0 | 3.0 | 0.00 | 0.00 | 0.00 | 68 | 1018.5 |
| 20260905065108 | 81 | 313 | 2.0 | 3.0 | 0.00 | 0.00 | 0.00 | 68 | 1018.6 |
| 20260905065009 | 81 | 313 | 2.0 | 3.0 | 0.00 | 0.00 | 0.00 | 68 | 1018.6 |
| 20260905064909 | 81 | 313 | 2.0 | 3.0 | 0.00 | 0.00 | 0.00 | 68 | 1018.6 |
| 20260905064847 | 81 | 313 | 2.0 | 3.0 | 0.00 | 0.00 | 0.00 | 68 | 1018.6 |
| 20260905064841 | 81 | 313 | 2.0 | 3.0 | 0.00 | 0.00 | 0.00 | 68 | 1018.5 |
| 20260905064831 | 81 | 313 | 2.0 | 3.0 | 0.00 | 0.00 | 0.00 | 68 | 1018.7 |
| 20260905064703 | 81 | 313 | 2.0 | 3.0 | 0.00 | 0.00 | 0.00 | 68 | 1018.6 |
| 20260905064639 | 81 | 313 | 2.0 | 3.0 | 0.00 | 0.00 | 0.00 | 68 | 1018.6 |
| 20260905064428 | 81 | 313 | 2.0 | 3.0 | 0.00 | 0.00 | 0.00 | 68 | 1018.6 |
| 20260905064259 | 81 | 313 | 2.0 | 4.0 | 0.00 | 0.00 | 0.00 | 68 | 1018.6 |
| 20260905064156 | 81 | 313 | 2.0 | 4.0 | 0.00 | 0.00 | 0.00 | 68 | 1018.6 |
| 20260905064055 | 81 | 313 | 2.0 | 4.0 | 0.00 | 0.00 | 0.00 | 68 | 1018.6 |
| 20260905063954 | 81 | 313 | 2.0 | 4.0 | 0.00 | 0.00 | 0.00 | 68 | 1018.6 |
| 20260905063856 | 81 | 313 | 2.0 | 4.0 | 0.00 | 0.00 | 0.00 | 68 | 1018.6 |
| 20260905063822 | 81 | 313 | 2.0 | 4.0 | 0.00 | 0.00 | 0.00 | 69 | 1018.5 |
| 20260905063809 | 81 | 313 | 2.0 | 4.0 | 0.00 | 0.00 | 0.00 | 68 | 1018.5 |
| 20260905063622 | 81 | 313 | 2.0 | 4.0 | 0.00 | 0.00 | 0.00 | 69 | 1018.6 |
| 20260905063609 | 81 | 313 | 2.0 | 4.0 | 0.00 | 0.00 | 0.00 | 69 | 1018.5 |
| 20260905063419 | 81 | 313 | 2.0 | 4.0 | 0.00 | 0.00 | 0.00 | 69 | 1018.6 |
| 20260905063407 | 81 | 313 | 2.0 | 4.0 | 0.00 | 0.00 | 0.00 | 69 | 1018.6 |
| 20260905063145 | 81 | 313 | 2.0 | 4.0 | 0.00 | 0.00 | 0.00 | 69 | 1018.6 |
| 20260905063044 | 81 | 313 | 2.0 | 4.0 | 0.00 | 0.00 | 0.00 | 69 | 1018.7 |
| 20260905062945 | 81 | 313 | 2.0 | 4.0 | 0.00 | 0.00 | 0.00 | 69 | 1018.7 |
| 20260905062843 | 81 | 313 | 2.0 | 4.0 | 0.00 | 0.00 | 0.00 | 69 | 1018.7 |
| 20260905062742 | 81 | 313 | 2.0 | 4.0 | 0.00 | 0.00 | 0.00 | 69 | 1018.7 |
| 20260905062640 | 81 | 306 | 2.0 | 4.0 | 0.00 | 0.00 | 0.00 | 70 | 1018.7 |
| 20260905062541 | 80 | 306 | 2.0 | 4.0 | 0.00 | 0.00 | 0.00 | 70 | 1018.7 |
| 20260905062439 | 80 | 306 | 2.0 | 4.0 | 0.00 | 0.00 | 0.00 | 70 | 1018.7 |
| 20260905062336 | 80 | 303 | 2.0 | 3.0 | 0.00 | 0.00 | 0.00 | 70 | 1018.7 |
| 20260905062237 | 80 | 300 | 1.0 | 3.0 | 0.00 | 0.00 | 0.00 | 70 | 1018.7 |
| 20260905062137 | 80 | 267 | 1.0 | 3.0 | 0.00 | 0.00 | 0.00 | 70 | 1018.7 |
| 20260905062029 | 80 | 264 | 1.0 | 3.0 | 0.00 | 0.00 | 0.00 | 70 | 1018.6 |
| 20260905061936 | 80 | 238 | 1.0 | 3.0 | 0.00 | 0.00 | 0.00 | 71 | 1018.6 |
| 20260905061830 | 80 | 237 | 1.0 | 3.0 | 0.00 | 0.00 | 0.00 | 71 | 1018.5 |
| 20260905061731 | 80 | 204 | 1.0 | 3.0 | 0.00 | 0.00 | 0.00 | 71 | 1018.5 |
| 20260905061631 | 80 | 204 | 0.0 | 3.0 | 0.00 | 0.00 | 0.00 | 71 | 1018.6 |
| 20260905061536 | 80 | 201 | 0.0 | 3.0 | 0.00 | 0.00 | 0.00 | 71 | 1018.5 |
| 20260905061440 | 80 | 201 | 0.0 | 3.0 | 0.00 | 0.00 | 0.00 | 71 | 1018.5 |
| 20260905061328 | 80 | 201 | 0.0 | 3.0 | 0.00 | 0.00 | 0.00 | 71 | 1018.6 |
| 20260905061233 | 80 | 201 | 0.0 | 3.0 | 0.00 | 0.00 | 0.00 | 71 | 1018.5 |
| 20260905061157 | 80 | 220 | 0.0 | 2.0 | 0.00 | 0.00 | 0.00 | 71 | 1018.5 |
| 20260905061148 | 80 | 201 | 0.0 | 3.0 | 0.00 | 0.00 | 0.00 | 71 | 1018.6 |
| 20260905060920 | 80 | 219 | 0.0 | 2.0 | 0.00 | 0.00 | 0.00 | 71 | 1018.5 |
| 20260905060820 | 80 | 219 | 0.0 | 2.0 | 0.00 | 0.00 | 0.00 | 71 | 1018.6 |
| 20260905060720 | 80 | 219 | 0.0 | 2.0 | 0.00 | 0.00 | 0.00 | 71 | 1018.6 |
| 20260905060619 | 80 | 219 | 0.0 | 2.0 | 0.00 | 0.00 | 0.00 | 71 | 1018.6 |
| 20260905060609 | 79 | 219 | 1.0 | 2.0 | 0.00 | 0.00 | 0.00 | 71 | 1018.6 |
| 20260905060605 | 79 | 219 | 1.0 | 3.0 | 0.00 | 0.00 | 0.00 | 71 | 1018.7 |
| 20260905060554 | 80 | 219 | 1.0 | 2.0 | 0.00 | 0.00 | 0.00 | 71 | 1018.7 |
| 20260905060355 | 79 | 219 | 1.0 | 2.0 | 0.00 | 0.00 | 0.00 | 71 | 1018.7 |
| 20260905060120 | 79 | 219 | 1.0 | 3.0 | 0.00 | 0.00 | 0.00 | 71 | 1018.7 |
| 20260905060016 | 79 | 218 | 1.0 | 3.0 | 0.00 | 0.00 | 0.00 | 71 | 1018.6 |
| 20260905055918 | 79 | 218 | 1.0 | 3.0 | 0.00 | 0.00 | 0.00 | 71 | 1018.6 |
| 20260905055910 | 79 | 218 | 1.0 | 3.0 | 0.00 | 0.00 | 0.00 | 71 | 1018.6 |
| 20260905055857 | 79 | 218 | 1.0 | 3.0 | 0.00 | 0.00 | 0.00 | 71 | 1018.6 |
| 20260905055613 | 79 | 218 | 1.0 | 3.0 | 0.00 | 0.00 | 0.00 | 71 | 1018.6 |
| 20260905055527 | 79 | 218 | 1.0 | 3.0 | 0.00 | 0.00 | 0.00 | 71 | 1018.6 |
| 20260905055515 | 79 | 218 | 1.0 | 3.0 | 0.00 | 0.00 | 0.00 | 71 | 1018.6 |
| 20260905055502 | 79 | 218 | 1.0 | 3.0 | 0.00 | 0.00 | 0.00 | 71 | 1018.6 |
| 20260905055238 | 80 | 219 | 1.0 | 2.0 | 0.00 | 0.00 | 0.00 | 71 | 1018.7 |
| 20260905055110 | 79 | 219 | 1.0 | 2.0 | 0.00 | 0.00 | 0.00 | 71 | 1018.7 |
| 20260905055012 | 80 | 219 | 1.0 | 3.0 | 0.00 | 0.00 | 0.00 | 71 | 1018.7 |
| 20260905054911 | 80 | 219 | 1.0 | 3.0 | 0.00 | 0.00 | 0.00 | 71 | 1018.7 |
| 20260905054810 | 80 | 219 | 1.0 | 3.0 | 0.00 | 0.00 | 0.00 | 71 | 1018.7 |
| 20260905054717 | 80 | 219 | 1.0 | 3.0 | 0.00 | 0.00 | 0.00 | 71 | 1018.7 |
| 20260905054611 | 80 | 219 | 1.0 | 3.0 | 0.00 | 0.00 | 0.00 | 71 | 1018.7 |
| 20260905054509 | 80 | 219 | 1.0 | 3.0 | 0.00 | 0.00 | 0.00 | 71 | 1018.7 |
| 20260905054417 | 79 | 219 | 1.0 | 3.0 | 0.00 | 0.00 | 0.00 | 71 | 1018.8 |
| 20260905054309 | 80 | 219 | 1.0 | 3.0 | 0.00 | 0.00 | 0.00 | 71 | 1018.7 |
| 20260905054303 | 80 | 218 | 1.0 | 3.0 | 0.00 | 0.00 | 0.00 | 71 | 1018.7 |
| 20260905054257 | 80 | 216 | 1.0 | 3.0 | 0.00 | 0.00 | 0.00 | 71 | 1018.8 |
| 20260905054251 | 80 | 216 | 2.0 | 3.0 | 0.00 | 0.00 | 0.00 | 71 | 1018.7 |
| 20260905054234 | 80 | 219 | 1.0 | 3.0 | 0.00 | 0.00 | 0.00 | 71 | 1018.8 |
| 20260905054215 | 80 | 219 | 1.0 | 3.0 | 0.00 | 0.00 | 0.00 | 71 | 1018.7 |
| 20260905053705 | 80 | 216 | 2.0 | 3.0 | 0.00 | 0.00 | 0.00 | 71 | 1018.7 |
| 20260905053606 | 80 | 216 | 2.0 | 3.0 | 0.00 | 0.00 | 0.00 | 71 | 1018.7 |
| 20260905053506 | 80 | 216 | 2.0 | 3.0 | 0.00 | 0.00 | 0.00 | 71 | 1018.7 |
| 20260905053405 | 79 | 216 | 2.0 | 3.0 | 0.00 | 0.00 | 0.00 | 71 | 1018.7 |
| 20260905053307 | 79 | 216 | 2.0 | 3.0 | 0.00 | 0.00 | 0.00 | 71 | 1018.7 |
| 20260905053208 | 79 | 216 | 2.0 | 3.0 | 0.00 | 0.00 | 0.00 | 71 | 1018.6 |
| 20260905053130 | 79 | 216 | 1.0 | 2.0 | 0.00 | 0.00 | 0.00 | 71 | 1018.7 |
| 20260905053115 | 79 | 216 | 2.0 | 3.0 | 0.00 | 0.00 | 0.00 | 71 | 1018.6 |
| 20260905053055 | 79 | 216 | 1.0 | 3.0 | 0.00 | 0.00 | 0.00 | 71 | 1018.7 |
| 20260905052806 | 80 | 216 | 1.0 | 2.0 | 0.00 | 0.00 | 0.00 | 71 | 1018.7 |
| 20260905052706 | 80 | 216 | 1.0 | 2.0 | 0.00 | 0.00 | 0.00 | 70 | 1018.7 |
| 20260905052607 | 80 | 216 | 1.0 | 2.0 | 0.00 | 0.00 | 0.00 | 70 | 1018.8 |
| 20260905052507 | 80 | 216 | 1.0 | 2.0 | 0.00 | 0.00 | 0.00 | 70 | 1018.8 |
| 20260905052406 | 80 | 216 | 1.0 | 3.0 | 0.00 | 0.00 | 0.00 | 70 | 1018.8 |
| 20260905052320 | 80 | 216 | 1.0 | 3.0 | 0.00 | 0.00 | 0.00 | 70 | 1018.7 |
| 20260905052253 | 80 | 216 | 1.0 | 3.0 | 0.00 | 0.00 | 0.00 | 70 | 1018.8 |
| 20260905052123 | 80 | 216 | 1.0 | 3.0 | 0.00 | 0.00 | 0.00 | 70 | 1018.7 |
| 20260905052034 | 80 | 216 | 1.0 | 3.0 | 0.00 | 0.00 | 0.00 | 70 | 1018.8 |
| 20260905051908 | 80 | 216 | 1.0 | 3.0 | 0.00 | 0.00 | 0.00 | 70 | 1018.8 |
| 20260905051858 | 80 | 216 | 2.0 | 3.0 | 0.00 | 0.00 | 0.00 | 70 | 1018.8 |
| 20260905051839 | 80 | 216 | 1.0 | 3.0 | 0.00 | 0.00 | 0.00 | 70 | 1018.8 |
| 20260905051818 | 80 | 216 | 1.0 | 3.0 | 0.00 | 0.00 | 0.00 | 70 | 1018.8 |
| 20260905051405 | 80 | 217 | 2.0 | 3.0 | 0.00 | 0.00 | 0.00 | 70 | 1018.8 |
| 20260905051338 | 80 | 217 | 1.0 | 3.0 | 0.00 | 0.00 | 0.00 | 70 | 1018.7 |
| 20260905051328 | 80 | 217 | 1.0 | 3.0 | 0.00 | 0.00 | 0.00 | 70 | 1018.7 |
| 20260905051107 | 80 | 217 | 1.0 | 3.0 | 0.00 | 0.00 | 0.00 | 70 | 1018.8 |
| 20260905051006 | 80 | 217 | 1.0 | 3.0 | 0.00 | 0.00 | 0.00 | 70 | 1018.7 |
| 20260905050910 | 80 | 221 | 1.0 | 3.0 | 0.00 | 0.00 | 0.00 | 70 | 1018.7 |
| 20260905050806 | 80 | 221 | 1.0 | 2.0 | 0.00 | 0.00 | 0.00 | 70 | 1018.7 |
| 20260905050708 | 80 | 221 | 1.0 | 2.0 | 0.00 | 0.00 | 0.00 | 70 | 1018.7 |
| 20260905050632 | 80 | 221 | 1.0 | 2.0 | 0.00 | 0.00 | 0.00 | 70 | 1018.8 |
| 20260905050620 | 80 | 221 | 1.0 | 2.0 | 0.00 | 0.00 | 0.00 | 70 | 1018.8 |
| 20260905050358 | 80 | 221 | 1.0 | 2.0 | 0.00 | 0.00 | 0.00 | 70 | 1018.8 |
| 20260905050259 | 80 | 221 | 1.0 | 2.0 | 0.00 | 0.00 | 0.00 | 70 | 1018.8 |
| 20260905050202 | 80 | 221 | 1.0 | 2.0 | 0.00 | 0.00 | 0.00 | 69 | 1018.8 |
| 20260905050057 | 80 | 221 | 1.0 | 2.0 | 0.00 | 0.00 | 0.00 | 69 | 1018.9 |
| 20260905050030 | 80 | 221 | 2.0 | 3.0 | 0.00 | 0.00 | 0.00 | 69 | 1018.9 |
| 20260905050018 | 80 | 221 | 2.0 | 3.0 | 0.00 | 0.00 | 0.00 | 69 | 1018.9 |
| 20260905045755 | 80 | 221 | 2.0 | 3.0 | 0.00 | 0.00 | 0.00 | 69 | 1018.9 |
| 20260905045656 | 80 | 221 | 2.0 | 3.0 | 0.00 | 0.00 | 0.00 | 69 | 1018.8 |
| 20260905045555 | 80 | 221 | 2.0 | 3.0 | 0.00 | 0.00 | 0.00 | 69 | 1018.9 |
| 20260905045511 | 79 | 221 | 2.0 | 3.0 | 0.00 | 0.00 | 0.00 | 70 | 1018.9 |
| 20260905045429 | 79 | 221 | 2.0 | 3.0 | 0.00 | 0.00 | 0.00 | 70 | 1018.9 |
| 20260905045416 | 79 | 221 | 2.0 | 3.0 | 0.00 | 0.00 | 0.00 | 70 | 1018.9 |
| 20260905045152 | 79 | 221 | 2.0 | 3.0 | 0.00 | 0.00 | 0.00 | 70 | 1018.9 |
| 20260905045120 | 79 | 221 | 2.0 | 3.0 | 0.00 | 0.00 | 0.00 | 70 | 1018.8 |
| 20260905045116 | 79 | 221 | 2.0 | 3.0 | 0.00 | 0.00 | 0.00 | 70 | 1018.8 |
| 20260905045103 | 79 | 221 | 2.0 | 3.0 | 0.00 | 0.00 | 0.00 | 70 | 1018.9 |
| 20260905044754 | 79 | 221 | 2.0 | 3.0 | 0.00 | 0.00 | 0.00 | 70 | 1018.8 |
| 20260905044718 | 79 | 221 | 1.0 | 3.0 | 0.00 | 0.00 | 0.00 | 70 | 1018.8 |
| 20260905044549 | 79 | 221 | 1.0 | 3.0 | 0.00 | 0.00 | 0.00 | 70 | 1018.9 |
| 20260905044446 | 79 | 221 | 1.0 | 3.0 | 0.00 | 0.00 | 0.00 | 71 | 1018.9 |
| 20260905044358 | 79 | 221 | 1.0 | 2.0 | 0.00 | 0.00 | 0.00 | 71 | 1018.9 |
| 20260905044248 | 79 | 221 | 1.0 | 2.0 | 0.00 | 0.00 | 0.00 | 71 | 1018.8 |
| 20260905044146 | 79 | 221 | 1.0 | 2.0 | 0.00 | 0.00 | 0.00 | 71 | 1018.8 |
| 20260905044046 | 79 | 221 | 1.0 | 2.0 | 0.00 | 0.00 | 0.00 | 71 | 1018.9 |
| 20260905043947 | 79 | 221 | 1.0 | 2.0 | 0.00 | 0.00 | 0.00 | 71 | 1018.8 |
| 20260905043846 | 79 | 221 | 1.0 | 2.0 | 0.00 | 0.00 | 0.00 | 71 | 1018.8 |
| 20260905043746 | 79 | 221 | 1.0 | 2.0 | 0.00 | 0.00 | 0.00 | 71 | 1018.9 |
| 20260905043650 | 79 | 221 | 1.0 | 2.0 | 0.00 | 0.00 | 0.00 | 71 | 1018.9 |
| 20260905043545 | 79 | 221 | 1.0 | 2.0 | 0.00 | 0.00 | 0.00 | 71 | 1018.9 |
| 20260905043504 | 79 | 200 | 1.0 | 2.0 | 0.00 | 0.00 | 0.00 | 71 | 1018.9 |
| 20260905043449 | 79 | 221 | 1.0 | 2.0 | 0.00 | 0.00 | 0.00 | 71 | 1018.9 |
| 20260905043426 | 79 | 221 | 1.0 | 2.0 | 0.00 | 0.00 | 0.00 | 71 | 1018.8 |
| 20260905043302 | 79 | 200 | 1.0 | 2.0 | 0.00 | 0.00 | 0.00 | 71 | 1018.8 |
| 20260905043037 | 79 | 200 | 1.0 | 2.0 | 0.00 | 0.00 | 0.00 | 71 | 1018.9 |
| 20260905042935 | 79 | 200 | 1.0 | 2.0 | 0.00 | 0.00 | 0.00 | 71 | 1018.9 |
| 20260905042904 | 79 | 200 | 1.0 | 2.0 | 0.00 | 0.00 | 0.00 | 71 | 1018.9 |
| 20260905042853 | 79 | 200 | 1.0 | 2.0 | 0.00 | 0.00 | 0.00 | 71 | 1018.9 |
| 20260905042647 | 79 | 200 | 1.0 | 3.0 | 0.00 | 0.00 | 0.00 | 71 | 1019.0 |
| 20260905042635 | 79 | 200 | 1.0 | 3.0 | 0.00 | 0.00 | 0.00 | 71 | 1018.9 |
| 20260905042627 | 79 | 200 | 1.0 | 3.0 | 0.00 | 0.00 | 0.00 | 72 | 1018.9 |
| 20260905042604 | 79 | 200 | 1.0 | 3.0 | 0.00 | 0.00 | 0.00 | 71 | 1018.9 |
| 20260905042446 | 79 | 200 | 1.0 | 3.0 | 0.00 | 0.00 | 0.00 | 72 | 1018.9 |
| 20260905042430 | 79 | 200 | 1.0 | 3.0 | 0.00 | 0.00 | 0.00 | 71 | 1018.9 |
| 20260905042409 | 79 | 200 | 1.0 | 3.0 | 0.00 | 0.00 | 0.00 | 71 | 1018.9 |
| 20260905042319 | 79 | 200 | 1.0 | 3.0 | 0.00 | 0.00 | 0.00 | 71 | 1019.0 |
| 20260905042141 | 79 | 200 | 1.0 | 3.0 | 0.00 | 0.00 | 0.00 | 72 | 1019.0 |
| 20260905042127 | 79 | 200 | 1.0 | 3.0 | 0.00 | 0.00 | 0.00 | 71 | 1019.0 |
| 20260905042104 | 79 | 200 | 1.0 | 3.0 | 0.00 | 0.00 | 0.00 | 71 | 1018.9 |
| 20260905041949 | 79 | 200 | 1.0 | 3.0 | 0.00 | 0.00 | 0.00 | 72 | 1018.9 |
| 20260905041944 | 79 | 200 | 1.0 | 3.0 | 0.00 | 0.00 | 0.00 | 72 | 1018.9 |
| 20260905041938 | 79 | 200 | 2.0 | 3.0 | 0.00 | 0.00 | 0.00 | 72 | 1018.9 |
| 20260905041921 | 79 | 200 | 1.0 | 3.0 | 0.00 | 0.00 | 0.00 | 71 | 1019.0 |
| 20260905041905 | 79 | 200 | 1.0 | 3.0 | 0.00 | 0.00 | 0.00 | 72 | 1019.0 |
| 20260905041846 | 79 | 200 | 1.0 | 3.0 | 0.00 | 0.00 | 0.00 | 72 | 1018.9 |
| 20260905041145 | 79 | 200 | 2.0 | 3.0 | 0.00 | 0.00 | 0.00 | 72 | 1019.0 |
| 20260905041014 | 79 | 200 | 1.0 | 3.0 | 0.00 | 0.00 | 0.00 | 71 | 1019.0 |
| 20260905041010 | 79 | 200 | 1.0 | 2.0 | 0.00 | 0.00 | 0.00 | 71 | 1019.1 |
| 20260905041000 | 79 | 200 | 2.0 | 3.0 | 0.00 | 0.00 | 0.00 | 72 | 1018.9 |
| 20260905040946 | 79 | 200 | 1.0 | 2.0 | 0.00 | 0.00 | 0.00 | 71 | 1019.1 |
| 20260905040925 | 79 | 200 | 2.0 | 3.0 | 0.00 | 0.00 | 0.00 | 71 | 1019.0 |
| 20260905040847 | 79 | 200 | 1.0 | 3.0 | 0.00 | 0.00 | 0.00 | 71 | 1019.0 |
| 20260905040807 | 79 | 200 | 1.0 | 3.0 | 0.00 | 0.00 | 0.00 | 71 | 1019.0 |
| 20260905040715 | 79 | 200 | 1.0 | 3.0 | 0.00 | 0.00 | 0.00 | 71 | 1018.9 |
| 20260905040527 | 79 | 200 | 1.0 | 3.0 | 0.00 | 0.00 | 0.00 | 71 | 1019.1 |
| 20260905040508 | 79 | 200 | 1.0 | 3.0 | 0.00 | 0.00 | 0.00 | 71 | 1019.0 |
| 20260905040023 | 79 | 200 | 1.0 | 2.0 | 0.00 | 0.00 | 0.00 | 71 | 1019.0 |
| 20260905035753 | 79 | 200 | 1.0 | 2.0 | 0.00 | 0.00 | 0.00 | 71 | 1019.1 |
| 20260905035647 | 79 | 200 | 1.0 | 2.0 | 0.00 | 0.00 | 0.00 | 71 | 1019.1 |
| 20260905035543 | 79 | 200 | 1.0 | 2.0 | 0.00 | 0.00 | 0.00 | 71 | 1019.2 |
| 20260905035453 | 79 | 200 | 1.0 | 3.0 | 0.00 | 0.00 | 0.00 | 71 | 1019.1 |
| 20260905035340 | 79 | 199 | 1.0 | 3.0 | 0.00 | 0.00 | 0.00 | 71 | 1019.1 |
| 20260905035247 | 79 | 199 | 1.0 | 3.0 | 0.00 | 0.00 | 0.00 | 71 | 1019.1 |
| 20260905035140 | 79 | 199 | 1.0 | 3.0 | 0.00 | 0.00 | 0.00 | 71 | 1019.2 |
| 20260905035111 | 79 | 199 | 1.0 | 3.0 | 0.00 | 0.00 | 0.00 | 71 | 1019.2 |
| 20260905035057 | 79 | 199 | 1.0 | 3.0 | 0.00 | 0.00 | 0.00 | 71 | 1019.2 |
| 20260905035007 | 79 | 199 | 1.0 | 3.0 | 0.00 | 0.00 | 0.00 | 71 | 1019.2 |
| 20260905034828 | 79 | 199 | 1.0 | 3.0 | 0.00 | 0.00 | 0.00 | 71 | 1019.2 |
| 20260905034724 | 79 | 199 | 1.0 | 3.0 | 0.00 | 0.00 | 0.00 | 71 | 1019.2 |
| 20260905034636 | 79 | 199 | 1.0 | 4.0 | 0.00 | 0.00 | 0.00 | 71 | 1019.2 |
| 20260905034529 | 79 | 199 | 1.0 | 4.0 | 0.00 | 0.00 | 0.00 | 71 | 1019.2 |
| 20260905034512 | 79 | 199 | 1.0 | 4.0 | 0.00 | 0.00 | 0.00 | 71 | 1019.3 |
| 20260905034439 | 79 | 199 | 1.0 | 4.0 | 0.00 | 0.00 | 0.00 | 71 | 1019.2 |
| 20260905034341 | 79 | 199 | 1.0 | 4.0 | 0.00 | 0.00 | 0.00 | 71 | 1019.2 |
| 20260905034129 | 80 | 199 | 1.0 | 4.0 | 0.00 | 0.00 | 0.00 | 71 | 1019.3 |
| 20260905034018 | 80 | 199 | 1.0 | 4.0 | 0.00 | 0.00 | 0.00 | 71 | 1019.3 |
| 20260905033921 | 80 | 199 | 1.0 | 4.0 | 0.00 | 0.00 | 0.00 | 71 | 1019.3 |
| 20260905033813 | 80 | 199 | 1.0 | 4.0 | 0.00 | 0.00 | 0.00 | 71 | 1019.3 |
| 20260905033713 | 80 | 217 | 1.0 | 4.0 | 0.00 | 0.00 | 0.00 | 71 | 1019.3 |
| 20260905033612 | 80 | 227 | 1.0 | 3.0 | 0.00 | 0.00 | 0.00 | 71 | 1019.3 |
| 20260905033552 | 80 | 227 | 1.0 | 3.0 | 0.00 | 0.00 | 0.00 | 72 | 1019.4 |
| 20260905033538 | 80 | 227 | 1.0 | 3.0 | 0.00 | 0.00 | 0.00 | 71 | 1019.3 |
| 20260905033305 | 80 | 227 | 1.0 | 3.0 | 0.00 | 0.00 | 0.00 | 72 | 1019.4 |
| 20260905033203 | 80 | 227 | 1.0 | 3.0 | 0.00 | 0.00 | 0.00 | 72 | 1019.4 |
| 20260905033101 | 80 | 227 | 1.0 | 3.0 | 0.00 | 0.00 | 0.00 | 72 | 1019.4 |
| 20260905033000 | 80 | 227 | 1.0 | 3.0 | 0.00 | 0.00 | 0.00 | 72 | 1019.4 |
| 20260905032900 | 80 | 227 | 1.0 | 3.0 | 0.00 | 0.00 | 0.00 | 72 | 1019.4 |
| 20260905032755 | 80 | 227 | 1.0 | 3.0 | 0.00 | 0.00 | 0.00 | 71 | 1019.4 |
| 20260905032656 | 80 | 227 | 1.0 | 3.0 | 0.00 | 0.00 | 0.00 | 71 | 1019.3 |
| 20260905032555 | 80 | 227 | 1.0 | 2.0 | 0.00 | 0.00 | 0.00 | 71 | 1019.4 |
| 20260905032455 | 80 | 227 | 1.0 | 2.0 | 0.00 | 0.00 | 0.00 | 71 | 1019.4 |
| 20260905032426 | 80 | 227 | 1.0 | 2.0 | 0.00 | 0.00 | 0.00 | 71 | 1019.3 |
| 20260905032253 | 80 | 227 | 1.0 | 2.0 | 0.00 | 0.00 | 0.00 | 71 | 1019.4 |
| 20260905032150 | 80 | 227 | 1.0 | 2.0 | 0.00 | 0.00 | 0.00 | 71 | 1019.4 |
| 20260905032054 | 80 | 227 | 1.0 | 2.0 | 0.00 | 0.00 | 0.00 | 71 | 1019.4 |
| 20260905032022 | 80 | 227 | 1.0 | 3.0 | 0.00 | 0.00 | 0.00 | 71 | 1019.3 |
| 20260905032010 | 80 | 227 | 1.0 | 2.0 | 0.00 | 0.00 | 0.00 | 71 | 1019.3 |
| 20260905031813 | 81 | 227 | 1.0 | 3.0 | 0.00 | 0.00 | 0.00 | 71 | 1019.4 |
| 20260905031759 | 81 | 227 | 1.0 | 3.0 | 0.00 | 0.00 | 0.00 | 71 | 1019.4 |
| 20260905031534 | 81 | 227 | 1.0 | 3.0 | 0.00 | 0.00 | 0.00 | 71 | 1019.3 |
| 20260905031433 | 81 | 227 | 2.0 | 3.0 | 0.00 | 0.00 | 0.00 | 71 | 1019.4 |
| 20260905031333 | 81 | 227 | 2.0 | 3.0 | 0.00 | 0.00 | 0.00 | 71 | 1019.3 |
| 20260905031237 | 81 | 227 | 2.0 | 3.0 | 0.00 | 0.00 | 0.00 | 71 | 1019.3 |
| 20260905031130 | 81 | 227 | 2.0 | 3.0 | 0.00 | 0.00 | 0.00 | 70 | 1019.3 |
| 20260905031101 | 81 | 227 | 2.0 | 3.0 | 0.00 | 0.00 | 0.00 | 70 | 1019.4 |
| 20260905031054 | 81 | 227 | 2.0 | 3.0 | 0.00 | 0.00 | 0.00 | 70 | 1019.3 |
| 20260905030856 | 81 | 227 | 2.0 | 3.0 | 0.00 | 0.00 | 0.00 | 70 | 1019.4 |
| 20260905030847 | 81 | 227 | 2.0 | 3.0 | 0.00 | 0.00 | 0.00 | 70 | 1019.3 |
| 20260905030621 | 81 | 227 | 2.0 | 2.0 | 0.00 | 0.00 | 0.00 | 70 | 1019.4 |
| 20260905030532 | 81 | 227 | 2.0 | 2.0 | 0.00 | 0.00 | 0.00 | 70 | 1019.5 |
| 20260905030422 | 81 | 227 | 2.0 | 2.0 | 0.00 | 0.00 | 0.00 | 70 | 1019.5 |
| 20260905030322 | 80 | 227 | 2.0 | 2.0 | 0.00 | 0.00 | 0.00 | 70 | 1019.6 |
| 20260905030220 | 80 | 227 | 2.0 | 2.0 | 0.00 | 0.00 | 0.00 | 71 | 1019.5 |
| 20260905030127 | 80 | 227 | 2.0 | 2.0 | 0.00 | 0.00 | 0.00 | 70 | 1019.5 |
| 20260905030018 | 80 | 227 | 1.0 | 2.0 | 0.00 | 0.00 | 0.00 | 70 | 1019.5 |
| 20260905025916 | 80 | 227 | 1.0 | 2.0 | 0.00 | 0.00 | 0.00 | 70 | 1019.6 |
| 20260905025818 | 80 | 227 | 1.0 | 2.0 | 0.00 | 0.00 | 0.00 | 70 | 1019.6 |
| 20260905025745 | 80 | 227 | 1.0 | 2.0 | 0.00 | 0.00 | 0.00 | 71 | 1019.6 |
| 20260905025729 | 80 | 227 | 1.0 | 2.0 | 0.00 | 0.00 | 0.00 | 71 | 1019.6 |
| 20260905025710 | 80 | 227 | 1.0 | 2.0 | 0.00 | 0.00 | 0.00 | 71 | 1019.6 |
| 20260905025415 | 80 | 227 | 1.0 | 2.0 | 0.00 | 0.00 | 0.00 | 71 | 1019.7 |